| time (UTC) | temp F | wind direction | speed knots | gust knots | rain 1hr in | rain 24hr in | rain mn in | humidity % | barometer mb |
| 20260507082056 | 51 | 231 | 4.3 | 11.3 | 0.00 | 0.18 | 0.02 | 90 | 1012.1 |
| 20260507081954 | 51 | 247 | 6.1 | 11.3 | 0.00 | 0.18 | 0.02 | 90 | 1012.1 |
| 20260507081852 | 51 | 201 | 6.1 | 11.3 | 0.00 | 0.18 | 0.02 | 90 | 1012.0 |
| 20260507081751 | 51 | 266 | 5.2 | 11.3 | 0.00 | 0.18 | 0.02 | 90 | 1012.0 |
| 20260507081650 | 51 | 221 | 4.3 | 11.3 | 0.00 | 0.18 | 0.02 | 90 | 1012.1 |
| 20260507081549 | 51 | 203 | 5.2 | 11.3 | 0.00 | 0.18 | 0.02 | 90 | 1012.0 |
| 20260507081448 | 51 | 216 | 7.0 | 11.3 | 0.00 | 0.18 | 0.02 | 90 | 1012.1 |
| 20260507081346 | 50 | 200 | 5.2 | 11.3 | 0.00 | 0.18 | 0.02 | 90 | 1012.0 |
| 20260507081245 | 50 | 237 | 3.5 | 9.6 | 0.00 | 0.18 | 0.02 | 91 | 1012.1 |
| 20260507081144 | 50 | 245 | 3.5 | 8.7 | 0.00 | 0.18 | 0.02 | 91 | 1012.1 |
| 20260507081041 | 50 | 216 | 4.3 | 8.7 | 0.00 | 0.18 | 0.02 | 91 | 1012.1 |
| 20260507080940 | 50 | 203 | 4.3 | 8.7 | 0.00 | 0.18 | 0.02 | 91 | 1012.1 |
| 20260507080839 | 50 | 236 | 3.5 | 9.6 | 0.00 | 0.18 | 0.02 | 91 | 1012.1 |
| 20260507080738 | 50 | 199 | 3.5 | 9.6 | 0.00 | 0.18 | 0.02 | 91 | 1012.1 |
| 20260507080637 | 50 | 200 | 4.3 | 9.6 | 0.00 | 0.18 | 0.02 | 91 | 1012.0 |
| 20260507080535 | 50 | 253 | 4.3 | 9.6 | 0.00 | 0.18 | 0.02 | 91 | 1012.1 |
| 20260507080434 | 50 | 241 | 5.2 | 9.6 | 0.00 | 0.18 | 0.02 | 91 | 1012.0 |
| 20260507080333 | 50 | 216 | 5.2 | 9.6 | 0.00 | 0.18 | 0.02 | 91 | 1012.1 |
| 20260507080232 | 50 | 206 | 4.3 | 9.6 | 0.00 | 0.18 | 0.02 | 91 | 1012.0 |
| 20260507080130 | 50 | 211 | 4.3 | 9.6 | 0.00 | 0.18 | 0.02 | 91 | 1011.9 |
| 20260507080029 | 50 | 206 | 5.2 | 9.6 | 0.00 | 0.18 | 0.02 | 91 | 1012.0 |
| 20260507075929 | 50 | 254 | 4.3 | 9.6 | 0.00 | 0.18 | 0.02 | 91 | 1012.0 |
| 20260507075831 | 50 | 237 | 3.5 | 8.7 | 0.00 | 0.18 | 0.02 | 92 | 1011.9 |
| 20260507075725 | 50 | 256 | 2.6 | 8.7 | 0.00 | 0.18 | 0.02 | 92 | 1011.9 |
| 20260507075624 | 50 | 192 | 1.7 | 8.7 | 0.00 | 0.18 | 0.02 | 92 | 1011.9 |
| 20260507075523 | 50 | 216 | 4.3 | 8.7 | 0.00 | 0.18 | 0.02 | 91 | 1011.8 |
| 20260507075422 | 50 | 224 | 5.2 | 8.7 | 0.00 | 0.18 | 0.02 | 92 | 1012.0 |
| 20260507075320 | 50 | 206 | 4.3 | 7.8 | 0.00 | 0.18 | 0.02 | 92 | 1011.9 |
| 20260507075219 | 50 | 261 | 2.6 | 7.0 | 0.00 | 0.18 | 0.02 | 92 | 1011.9 |
| 20260507075118 | 50 | 234 | 2.6 | 7.0 | 0.00 | 0.18 | 0.02 | 92 | 1011.9 |
| 20260507075016 | 50 | 216 | 3.5 | 7.0 | 0.00 | 0.18 | 0.02 | 92 | 1011.9 |
| 20260507074917 | 50 | 276 | 4.3 | 7.0 | 0.00 | 0.18 | 0.02 | 92 | 1012.0 |
| 20260507074814 | 50 | 211 | 3.5 | 7.0 | 0.00 | 0.18 | 0.02 | 92 | 1011.9 |
| 20260507074712 | 50 | 206 | 2.6 | 7.0 | 0.00 | 0.18 | 0.02 | 92 | 1011.9 |
| 20260507074617 | 50 | 237 | 1.7 | 7.0 | 0.00 | 0.18 | 0.02 | 92 | 1011.9 |
| 20260507074540 | 50 | 211 | 2.6 | 7.0 | 0.00 | 0.18 | 0.02 | 92 | 1011.8 |
| 20260507074511 | 50 | 211 | 3.5 | 7.0 | 0.00 | 0.18 | 0.02 | 92 | 1011.9 |
| 20260507074303 | 50 | 211 | 3.5 | 7.0 | 0.00 | 0.18 | 0.02 | 92 | 1011.9 |
| 20260507074202 | 50 | 172 | 3.5 | 9.6 | 0.00 | 0.18 | 0.02 | 92 | 1011.9 |
| 20260507074103 | 50 | 222 | 3.5 | 9.6 | 0.00 | 0.18 | 0.02 | 92 | 1011.8 |
| 20260507074002 | 50 | 223 | 3.5 | 9.6 | 0.00 | 0.18 | 0.02 | 92 | 1011.8 |
| 20260507073901 | 50 | 245 | 3.5 | 9.6 | 0.00 | 0.18 | 0.02 | 92 | 1011.8 |
| 20260507073756 | 50 | 245 | 2.6 | 9.6 | 0.00 | 0.18 | 0.02 | 92 | 1011.9 |
| 20260507073657 | 50 | 187 | 3.5 | 9.6 | 0.00 | 0.18 | 0.02 | 92 | 1011.8 |
| 20260507073557 | 50 | 154 | 4.3 | 9.6 | 0.00 | 0.18 | 0.02 | 92 | 1011.8 |
| 20260507073456 | 50 | 211 | 5.2 | 9.6 | 0.00 | 0.18 | 0.02 | 92 | 1011.8 |
| 20260507073351 | 50 | 211 | 6.1 | 9.6 | 0.00 | 0.18 | 0.02 | 92 | 1011.8 |
| 20260507073254 | 50 | 211 | 4.3 | 9.6 | 0.00 | 0.18 | 0.02 | 92 | 1011.8 |
| 20260507073148 | 50 | 233 | 3.5 | 8.7 | 0.00 | 0.18 | 0.02 | 92 | 1011.8 |
| 20260507073104 | 50 | 211 | 3.5 | 7.8 | 0.00 | 0.18 | 0.02 | 92 | 1011.8 |
| 20260507073030 | 50 | 226 | 3.5 | 7.0 | 0.00 | 0.18 | 0.02 | 92 | 1011.8 |
| 20260507072848 | 50 | 199 | 3.5 | 6.1 | 0.00 | 0.18 | 0.02 | 92 | 1011.8 |
| 20260507072743 | 50 | 186 | 1.7 | 6.1 | 0.00 | 0.18 | 0.02 | 92 | 1011.8 |
| 20260507072645 | 50 | 211 | 2.6 | 6.1 | 0.00 | 0.18 | 0.02 | 92 | 1011.7 |
| 20260507072600 | 50 | 216 | 3.5 | 7.8 | 0.00 | 0.18 | 0.02 | 92 | 1011.7 |
| 20260507072527 | 50 | 235 | 3.5 | 7.8 | 0.00 | 0.18 | 0.02 | 92 | 1011.8 |
| 20260507072343 | 50 | 203 | 3.5 | 7.8 | 0.00 | 0.18 | 0.02 | 92 | 1011.7 |
| 20260507072241 | 50 | 262 | 3.5 | 7.8 | 0.00 | 0.18 | 0.02 | 92 | 1011.8 |
| 20260507072135 | 50 | 255 | 2.6 | 7.8 | 0.00 | 0.18 | 0.02 | 92 | 1011.7 |
| 20260507072034 | 50 | 191 | 2.6 | 7.8 | 0.00 | 0.18 | 0.02 | 92 | 1011.7 |
| 20260507071937 | 49 | 166 | 1.7 | 8.7 | 0.00 | 0.18 | 0.02 | 92 | 1011.6 |
| 20260507071836 | 49 | 206 | 1.7 | 8.7 | 0.00 | 0.18 | 0.02 | 92 | 1011.7 |
| 20260507071735 | 49 | 199 | 3.5 | 8.7 | 0.00 | 0.18 | 0.02 | 92 | 1011.7 |
| 20260507071632 | 49 | 155 | 3.5 | 8.7 | 0.00 | 0.18 | 0.02 | 92 | 1011.6 |
| 20260507071532 | 49 | 199 | 1.7 | 8.7 | 0.00 | 0.18 | 0.02 | 92 | 1011.6 |
| 20260507071431 | 49 | 159 | 2.6 | 8.7 | 0.00 | 0.18 | 0.02 | 92 | 1011.6 |
| 20260507071324 | 49 | 225 | 3.5 | 8.7 | 0.00 | 0.18 | 0.02 | 92 | 1011.6 |
| 20260507071223 | 49 | 229 | 4.3 | 8.7 | 0.00 | 0.18 | 0.02 | 92 | 1011.6 |
| 20260507071122 | 49 | 181 | 3.5 | 8.7 | 0.00 | 0.18 | 0.02 | 92 | 1011.7 |
| 20260507071021 | 49 | 202 | 2.6 | 8.7 | 0.00 | 0.18 | 0.02 | 92 | 1011.6 |
| 20260507070920 | 49 | 163 | 3.5 | 8.7 | 0.00 | 0.18 | 0.02 | 92 | 1011.6 |
| 20260507070818 | 49 | 187 | 4.3 | 8.7 | 0.00 | 0.18 | 0.02 | 92 | 1011.7 |
| 20260507070717 | 49 | 216 | 4.3 | 8.7 | 0.00 | 0.18 | 0.02 | 92 | 1011.6 |
| 20260507070620 | 49 | 234 | 5.2 | 8.7 | 0.00 | 0.18 | 0.02 | 92 | 1011.6 |
| 20260507070515 | 49 | 176 | 4.3 | 8.7 | 0.00 | 0.18 | 0.02 | 92 | 1011.6 |
| 20260507070412 | 49 | 225 | 3.5 | 8.7 | 0.00 | 0.18 | 0.02 | 92 | 1011.7 |
| 20260507070315 | 49 | 216 | 3.5 | 8.7 | 0.00 | 0.18 | 0.02 | 92 | 1011.6 |
| 20260507070211 | 49 | 185 | 3.5 | 8.7 | 0.00 | 0.18 | 0.02 | 92 | 1011.6 |
| 20260507070121 | 49 | 167 | 3.5 | 8.7 | 0.00 | 0.18 | 0.02 | 92 | 1011.7 |
| 20260507070011 | 49 | 211 | 4.3 | 8.7 | 0.00 | 0.18 | 0.02 | 92 | 1011.7 |
| 20260507065907 | 49 | 201 | 3.5 | 8.7 | 0.00 | 0.18 | 0.02 | 92 | 1011.6 |
| 20260507065806 | 49 | 230 | 3.5 | 8.7 | 0.00 | 0.18 | 0.02 | 92 | 1011.6 |
| 20260507065708 | 49 | 197 | 2.6 | 8.7 | 0.00 | 0.18 | 0.02 | 92 | 1011.6 |
| 20260507065607 | 49 | 201 | 2.6 | 8.7 | 0.00 | 0.18 | 0.02 | 92 | 1011.6 |
| 20260507065502 | 49 | 203 | 1.7 | 7.0 | 0.00 | 0.18 | 0.02 | 92 | 1011.6 |
| 20260507065402 | 49 | 220 | 3.5 | 7.0 | 0.00 | 0.18 | 0.02 | 92 | 1011.6 |
| 20260507065305 | 49 | 257 | 3.5 | 7.0 | 0.00 | 0.18 | 0.02 | 92 | 1011.6 |
| 20260507065201 | 49 | 241 | 3.5 | 7.8 | 0.00 | 0.18 | 0.02 | 92 | 1011.6 |
| 20260507065100 | 49 | 203 | 1.7 | 7.8 | 0.00 | 0.18 | 0.02 | 92 | 1011.6 |
| 20260507064957 | 49 | 239 | 1.7 | 7.8 | 0.00 | 0.18 | 0.02 | 92 | 1011.6 |
| 20260507064900 | 49 | 216 | 1.7 | 8.7 | 0.00 | 0.18 | 0.02 | 92 | 1011.5 |
| 20260507064752 | 49 | 247 | 1.7 | 8.7 | 0.00 | 0.18 | 0.02 | 92 | 1011.5 |
| 20260507064654 | 49 | 216 | 2.6 | 8.7 | 0.00 | 0.18 | 0.02 | 92 | 1011.6 |
| 20260507064554 | 49 | 216 | 3.5 | 8.7 | 0.00 | 0.18 | 0.02 | 92 | 1011.5 |
| 20260507064449 | 49 | 192 | 3.5 | 9.6 | 0.00 | 0.18 | 0.02 | 91 | 1011.6 |
| 20260507064250 | 49 | 200 | 3.5 | 9.6 | 0.00 | 0.18 | 0.02 | 91 | 1011.5 |
| 20260507064147 | 49 | 216 | 5.2 | 9.6 | 0.00 | 0.18 | 0.02 | 91 | 1011.5 |
| 20260507064042 | 49 | 191 | 5.2 | 9.6 | 0.00 | 0.18 | 0.02 | 91 | 1011.5 |
| 20260507063940 | 49 | 211 | 3.5 | 9.6 | 0.00 | 0.18 | 0.02 | 91 | 1011.5 |
| 20260507063839 | 49 | 222 | 3.5 | 9.6 | 0.00 | 0.18 | 0.02 | 91 | 1011.5 |
| 20260507063738 | 49 | 196 | 5.2 | 9.6 | 0.00 | 0.18 | 0.02 | 91 | 1011.4 |
| 20260507063637 | 49 | 188 | 5.2 | 9.6 | 0.00 | 0.18 | 0.02 | 91 | 1011.5 |
| 20260507063537 | 49 | 216 | 3.5 | 9.6 | 0.00 | 0.18 | 0.02 | 91 | 1011.5 |
| 20260507063434 | 49 | 242 | 3.5 | 8.7 | 0.00 | 0.18 | 0.02 | 91 | 1011.4 |
| 20260507063332 | 49 | 216 | 3.5 | 8.7 | 0.00 | 0.18 | 0.02 | 91 | 1011.5 |
| 20260507063231 | 49 | 206 | 4.3 | 8.7 | 0.00 | 0.18 | 0.02 | 91 | 1011.5 |
| 20260507063130 | 49 | 180 | 3.5 | 8.7 | 0.00 | 0.18 | 0.02 | 91 | 1011.4 |
| 20260507063028 | 49 | 216 | 3.5 | 8.7 | 0.00 | 0.18 | 0.02 | 91 | 1011.4 |
| 20260507062927 | 49 | 224 | 3.5 | 8.7 | 0.00 | 0.18 | 0.02 | 91 | 1011.5 |
| 20260507062826 | 49 | 206 | 4.3 | 8.7 | 0.00 | 0.18 | 0.02 | 91 | 1011.4 |
| 20260507062725 | 49 | 173 | 5.2 | 8.7 | 0.00 | 0.18 | 0.02 | 91 | 1011.4 |
| 20260507062624 | 49 | 206 | 3.5 | 8.7 | 0.00 | 0.18 | 0.02 | 91 | 1011.3 |
| 20260507062522 | 49 | 173 | 2.6 | 8.7 | 0.00 | 0.18 | 0.02 | 90 | 1011.4 |
| 20260507062421 | 49 | 216 | 2.6 | 8.7 | 0.00 | 0.18 | 0.02 | 90 | 1011.4 |
| 20260507062320 | 49 | 206 | 3.5 | 8.7 | 0.00 | 0.18 | 0.02 | 90 | 1011.3 |
| 20260507062219 | 49 | 198 | 3.5 | 8.7 | 0.00 | 0.18 | 0.02 | 90 | 1011.3 |
| 20260507062117 | 49 | 220 | 5.2 | 9.6 | 0.00 | 0.18 | 0.02 | 90 | 1011.4 |
| 20260507062016 | 49 | 199 | 5.2 | 9.6 | 0.00 | 0.18 | 0.02 | 90 | 1011.3 |
| 20260507061914 | 49 | 193 | 4.3 | 9.6 | 0.00 | 0.18 | 0.02 | 90 | 1011.3 |
| 20260507061813 | 49 | 193 | 4.3 | 9.6 | 0.00 | 0.18 | 0.02 | 90 | 1011.3 |
| 20260507061713 | 49 | 211 | 3.5 | 9.6 | 0.00 | 0.18 | 0.02 | 90 | 1011.4 |
| 20260507061610 | 49 | 200 | 3.5 | 9.6 | 0.00 | 0.18 | 0.02 | 90 | 1011.2 |
| 20260507061515 | 49 | 245 | 4.3 | 9.6 | 0.00 | 0.18 | 0.02 | 90 | 1011.2 |
| 20260507061408 | 49 | 163 | 4.3 | 9.6 | 0.00 | 0.18 | 0.02 | 90 | 1011.2 |
| 20260507061309 | 49 | 184 | 5.2 | 10.4 | 0.00 | 0.18 | 0.02 | 90 | 1011.2 |
| 20260507061206 | 49 | 233 | 5.2 | 10.4 | 0.00 | 0.18 | 0.02 | 90 | 1011.3 |
| 20260507061105 | 49 | 243 | 5.2 | 10.4 | 0.00 | 0.18 | 0.02 | 90 | 1011.2 |
| 20260507061004 | 49 | 191 | 4.3 | 10.4 | 0.00 | 0.18 | 0.02 | 90 | 1011.2 |
| 20260507060902 | 49 | 216 | 4.3 | 10.4 | 0.00 | 0.18 | 0.02 | 91 | 1011.2 |
| 20260507060802 | 49 | 234 | 3.5 | 10.4 | 0.00 | 0.18 | 0.02 | 91 | 1011.2 |
| 20260507060659 | 49 | 237 | 1.7 | 10.4 | 0.00 | 0.18 | 0.02 | 91 | 1011.2 |
| 20260507060556 | 49 | 228 | 3.5 | 10.4 | 0.00 | 0.18 | 0.02 | 91 | 1011.2 |
| 20260507060502 | 49 | 203 | 7.0 | 10.4 | 0.00 | 0.18 | 0.02 | 91 | 1011.2 |
| 20260507060354 | 49 | 211 | 7.0 | 10.4 | 0.00 | 0.18 | 0.02 | 91 | 1011.0 |
| 20260507060256 | 49 | 226 | 6.1 | 10.4 | 0.00 | 0.18 | 0.02 | 91 | 1011.2 |
| 20260507060152 | 49 | 203 | 6.1 | 11.3 | 0.00 | 0.18 | 0.02 | 91 | 1011.1 |
| 20260507060057 | 49 | 211 | 4.3 | 11.3 | 0.00 | 0.18 | 0.02 | 91 | 1011.1 |
| 20260507055949 | 49 | 202 | 4.3 | 11.3 | 0.00 | 0.18 | 0.02 | 91 | 1011.1 |
| 20260507055753 | 49 | 226 | 4.3 | 11.3 | 0.00 | 0.18 | 0.02 | 91 | 1011.0 |
| 20260507055645 | 49 | 250 | 4.3 | 11.3 | 0.00 | 0.18 | 0.02 | 91 | 1011.0 |
| 20260507055558 | 49 | 203 | 4.3 | 11.3 | 0.00 | 0.18 | 0.02 | 91 | 1010.9 |
| 20260507055522 | 49 | 224 | 4.3 | 11.3 | 0.00 | 0.18 | 0.02 | 91 | 1010.9 |
| 20260507055446 | 49 | 202 | 5.2 | 11.3 | 0.00 | 0.18 | 0.02 | 91 | 1010.9 |
| 20260507055240 | 49 | 229 | 3.5 | 11.3 | 0.00 | 0.18 | 0.02 | 91 | 1010.8 |
| 20260507055140 | 49 | 200 | 3.5 | 9.6 | 0.00 | 0.18 | 0.02 | 92 | 1010.9 |
| 20260507055039 | 49 | 211 | 2.6 | 9.6 | 0.00 | 0.18 | 0.02 | 92 | 1010.8 |
| 20260507054937 | 49 | 238 | 3.5 | 8.7 | 0.00 | 0.18 | 0.02 | 92 | 1010.8 |
| 20260507054735 | 49 | 245 | 3.5 | 8.7 | 0.00 | 0.18 | 0.02 | 92 | 1010.8 |
| 20260507054635 | 49 | 216 | 3.5 | 8.7 | 0.00 | 0.18 | 0.02 | 92 | 1010.8 |
| 20260507054531 | 49 | 235 | 2.6 | 8.7 | 0.00 | 0.18 | 0.02 | 92 | 1010.8 |
| 20260507054429 | 49 | 201 | 3.5 | 8.7 | 0.00 | 0.18 | 0.02 | 92 | 1010.7 |
| 20260507054328 | 49 | 206 | 3.5 | 8.7 | 0.00 | 0.18 | 0.02 | 92 | 1010.8 |
| 20260507054226 | 49 | 172 | 3.5 | 8.7 | 0.00 | 0.18 | 0.02 | 92 | 1010.7 |
| 20260507054125 | 49 | 233 | 3.5 | 8.7 | 0.00 | 0.18 | 0.02 | 92 | 1010.7 |
| 20260507054024 | 49 | 226 | 2.6 | 8.7 | 0.00 | 0.18 | 0.02 | 92 | 1010.7 |
| 20260507053923 | 48 | 264 | 1.7 | 8.7 | 0.00 | 0.18 | 0.02 | 92 | 1010.7 |
| 20260507053821 | 48 | 191 | 2.6 | 8.7 | 0.00 | 0.18 | 0.02 | 92 | 1010.7 |
| 20260507053720 | 48 | 211 | 4.3 | 8.7 | 0.00 | 0.18 | 0.02 | 92 | 1010.6 |
| 20260507053619 | 48 | 229 | 5.2 | 8.7 | 0.00 | 0.18 | 0.02 | 92 | 1010.7 |
| 20260507053519 | 48 | 206 | 5.2 | 8.7 | 0.00 | 0.18 | 0.02 | 92 | 1010.7 |
| 20260507053416 | 48 | 231 | 3.5 | 8.7 | 0.00 | 0.18 | 0.02 | 92 | 1010.7 |
| 20260507053315 | 48 | 216 | 2.6 | 8.7 | 0.00 | 0.18 | 0.02 | 92 | 1010.7 |
| 20260507053213 | 48 | 211 | 2.6 | 8.7 | 0.00 | 0.18 | 0.02 | 92 | 1010.6 |
| 20260507053112 | 48 | 216 | 3.5 | 8.7 | 0.00 | 0.18 | 0.02 | 92 | 1010.6 |
| 20260507053011 | 48 | 284 | 3.5 | 8.7 | 0.00 | 0.18 | 0.02 | 92 | 1010.6 |
| 20260507052909 | 48 | 211 | 3.5 | 8.7 | 0.00 | 0.18 | 0.02 | 92 | 1010.6 |
| 20260507052808 | 48 | 234 | 4.3 | 8.7 | 0.00 | 0.18 | 0.02 | 92 | 1010.6 |
| 20260507052707 | 48 | 254 | 4.3 | 8.7 | 0.01 | 0.18 | 0.02 | 92 | 1010.6 |
| 20260507052606 | 48 | 241 | 5.2 | 8.7 | 0.01 | 0.18 | 0.02 | 92 | 1010.6 |
| 20260507052505 | 48 | 233 | 4.3 | 8.7 | 0.01 | 0.18 | 0.02 | 92 | 1010.6 |
| 20260507052403 | 48 | 251 | 5.2 | 8.7 | 0.01 | 0.18 | 0.02 | 92 | 1010.6 |
| 20260507052305 | 48 | 246 | 5.2 | 8.7 | 0.01 | 0.18 | 0.02 | 92 | 1010.6 |
| 20260507052200 | 48 | 211 | 3.5 | 8.7 | 0.01 | 0.18 | 0.02 | 92 | 1010.6 |
| 20260507052058 | 48 | 216 | 2.6 | 9.6 | 0.01 | 0.18 | 0.02 | 92 | 1010.6 |
| 20260507051957 | 48 | 228 | 2.6 | 9.6 | 0.01 | 0.18 | 0.02 | 92 | 1010.6 |
| 20260507051856 | 48 | 230 | 2.6 | 9.6 | 0.01 | 0.18 | 0.02 | 92 | 1010.6 |
| 20260507051755 | 48 | 220 | 3.5 | 9.6 | 0.01 | 0.18 | 0.02 | 92 | 1010.6 |
| 20260507051654 | 48 | 246 | 3.5 | 9.6 | 0.01 | 0.18 | 0.02 | 92 | 1010.6 |
| 20260507051552 | 48 | 206 | 3.5 | 9.6 | 0.01 | 0.18 | 0.02 | 92 | 1010.5 |
| 20260507051451 | 48 | 220 | 5.2 | 9.6 | 0.01 | 0.18 | 0.02 | 92 | 1010.5 |
| 20260507051350 | 48 | 220 | 5.2 | 9.6 | 0.01 | 0.18 | 0.02 | 91 | 1010.6 |
| 20260507051249 | 48 | 226 | 2.6 | 9.6 | 0.01 | 0.18 | 0.02 | 92 | 1010.6 |
| 20260507051146 | 48 | 216 | 1.7 | 9.6 | 0.01 | 0.18 | 0.02 | 92 | 1010.6 |
| 20260507051046 | 48 | 200 | 2.6 | 8.7 | 0.01 | 0.18 | 0.02 | 92 | 1010.5 |
| 20260507050945 | 48 | 141 | 4.3 | 8.7 | 0.01 | 0.18 | 0.02 | 92 | 1010.6 |
| 20260507050843 | 48 | 216 | 4.3 | 8.7 | 0.01 | 0.18 | 0.02 | 92 | 1010.6 |
| 20260507050744 | 48 | 253 | 2.6 | 7.8 | 0.01 | 0.18 | 0.02 | 91 | 1010.6 |
| 20260507050640 | 48 | 216 | 2.6 | 7.8 | 0.01 | 0.18 | 0.02 | 92 | 1010.5 |
| 20260507050549 | 48 | 206 | 2.6 | 7.8 | 0.01 | 0.18 | 0.02 | 92 | 1010.5 |
| 20260507050504 | 48 | 226 | 1.7 | 9.6 | 0.01 | 0.18 | 0.02 | 92 | 1010.5 |
| 20260507050433 | 48 | 264 | 2.6 | 9.6 | 0.01 | 0.18 | 0.02 | 92 | 1010.5 |
| 20260507050241 | 48 | 237 | 2.6 | 9.6 | 0.01 | 0.18 | 0.02 | 91 | 1010.5 |
| 20260507050135 | 48 | 246 | 3.5 | 9.6 | 0.01 | 0.18 | 0.02 | 91 | 1010.5 |
| 20260507050034 | 48 | 241 | 5.2 | 9.6 | 0.01 | 0.18 | 0.02 | 91 | 1010.6 |
| 20260507045932 | 48 | 259 | 5.2 | 9.6 | 0.01 | 0.18 | 0.02 | 91 | 1010.6 |
| 20260507045831 | 48 | 249 | 4.3 | 9.6 | 0.01 | 0.18 | 0.02 | 91 | 1010.5 |
| 20260507045730 | 48 | 231 | 5.2 | 9.6 | 0.01 | 0.18 | 0.02 | 91 | 1010.5 |
| 20260507045628 | 48 | 237 | 6.1 | 9.6 | 0.01 | 0.18 | 0.02 | 91 | 1010.5 |
| 20260507045527 | 48 | 239 | 4.3 | 9.6 | 0.01 | 0.18 | 0.02 | 91 | 1010.5 |
| 20260507045425 | 48 | 278 | 4.3 | 7.8 | 0.01 | 0.18 | 0.02 | 91 | 1010.5 |
| 20260507045327 | 48 | 220 | 4.3 | 7.8 | 0.01 | 0.18 | 0.02 | 92 | 1010.4 |
| 20260507045223 | 48 | 220 | 1.7 | 7.8 | 0.01 | 0.18 | 0.02 | 92 | 1010.5 |
| 20260507045121 | 48 | 262 | 1.7 | 5.2 | 0.01 | 0.18 | 0.02 | 92 | 1010.4 |
| 20260507045020 | 48 | 246 | 2.6 | 6.1 | 0.01 | 0.18 | 0.02 | 92 | 1010.4 |
| 20260507044919 | 48 | 243 | 2.6 | 7.0 | 0.01 | 0.18 | 0.02 | 92 | 1010.4 |
| 20260507044717 | 48 | 234 | 3.5 | 8.7 | 0.01 | 0.18 | 0.02 | 92 | 1010.4 |
| 20260507044616 | 48 | 220 | 2.6 | 8.7 | 0.01 | 0.18 | 0.02 | 92 | 1010.4 |
| 20260507044525 | 48 | 206 | 2.6 | 8.7 | 0.01 | 0.18 | 0.02 | 92 | 1010.4 |
| 20260507044449 | 48 | 220 | 3.5 | 8.7 | 0.01 | 0.18 | 0.02 | 92 | 1010.4 |
| 20260507044312 | 48 | 272 | 3.5 | 8.7 | 0.01 | 0.18 | 0.02 | 92 | 1010.4 |
| 20260507044210 | 48 | 216 | 3.5 | 8.7 | 0.01 | 0.18 | 0.02 | 92 | 1010.4 |
| 20260507044108 | 48 | 241 | 4.3 | 8.7 | 0.01 | 0.18 | 0.02 | 92 | 1010.4 |
| 20260507044017 | 48 | 216 | 4.3 | 8.7 | 0.01 | 0.18 | 0.02 | 92 | 1010.4 |
| 20260507043944 | 48 | 216 | 3.5 | 8.7 | 0.01 | 0.18 | 0.02 | 92 | 1010.4 |
| 20260507043805 | 48 | 237 | 1.7 | 7.8 | 0.01 | 0.18 | 0.02 | 91 | 1010.4 |
| 20260507043704 | 48 | 176 | 1.7 | 7.0 | 0.01 | 0.18 | 0.02 | 92 | 1010.4 |
| 20260507043603 | 48 | 216 | 2.6 | 6.1 | 0.01 | 0.18 | 0.02 | 91 | 1010.4 |
| 20260507043502 | 48 | 226 | 2.6 | 6.1 | 0.01 | 0.18 | 0.02 | 91 | 1010.4 |
| 20260507043400 | 48 | 220 | 2.6 | 7.0 | 0.01 | 0.18 | 0.02 | 91 | 1010.3 |
| 20260507043257 | 48 | 231 | 3.5 | 7.0 | 0.01 | 0.18 | 0.02 | 91 | 1010.3 |
| 20260507043156 | 48 | 221 | 2.6 | 7.0 | 0.01 | 0.18 | 0.02 | 91 | 1010.3 |
| 20260507043054 | 48 | 237 | 1.7 | 7.0 | 0.01 | 0.18 | 0.02 | 91 | 1010.3 |
| 20260507042955 | 48 | 241 | 2.6 | 7.8 | 0.01 | 0.18 | 0.02 | 91 | 1010.3 |
| 20260507042853 | 48 | 216 | 2.6 | 7.8 | 0.01 | 0.18 | 0.02 | 91 | 1010.3 |
| 20260507042753 | 48 | 246 | 3.5 | 7.8 | 0.01 | 0.18 | 0.02 | 91 | 1010.2 |
| 20260507042652 | 48 | 238 | 3.5 | 7.8 | 0.00 | 0.17 | 0.02 | 91 | 1010.2 |
| 20260507042550 | 48 | 227 | 3.5 | 7.8 | 0.00 | 0.17 | 0.01 | 91 | 1010.3 |
| 20260507042448 | 48 | 245 | 3.5 | 7.8 | 0.00 | 0.17 | 0.01 | 91 | 1010.2 |
| 20260507042347 | 48 | 276 | 4.3 | 7.8 | 0.00 | 0.17 | 0.01 | 91 | 1010.2 |
| 20260507042246 | 48 | 255 | 5.2 | 7.8 | 0.00 | 0.17 | 0.01 | 91 | 1010.2 |
| 20260507042144 | 48 | 255 | 4.3 | 7.8 | 0.00 | 0.17 | 0.01 | 91 | 1010.1 |
| 20260507042044 | 48 | 228 | 3.5 | 7.8 | 0.00 | 0.17 | 0.01 | 91 | 1010.2 |
| 20260507041942 | 48 | 247 | 2.6 | 7.8 | 0.00 | 0.17 | 0.01 | 91 | 1010.1 |
| 20260507041841 | 48 | 270 | 3.5 | 9.6 | 0.00 | 0.17 | 0.01 | 91 | 1010.1 |
| 20260507041739 | 48 | 221 | 4.3 | 9.6 | 0.00 | 0.17 | 0.01 | 91 | 1010.0 |
| 20260507041639 | 48 | 258 | 5.2 | 9.6 | 0.00 | 0.17 | 0.01 | 91 | 1010.1 |
| 20260507041536 | 48 | 240 | 5.2 | 9.6 | 0.00 | 0.17 | 0.01 | 91 | 1010.1 |
| 20260507041436 | 48 | 216 | 4.3 | 9.6 | 0.00 | 0.17 | 0.01 | 91 | 1010.0 |
| 20260507041334 | 48 | 238 | 4.3 | 9.6 | 0.00 | 0.17 | 0.01 | 91 | 1010.0 |
| 20260507041233 | 48 | 293 | 3.5 | 9.6 | 0.00 | 0.17 | 0.01 | 91 | 1010.0 |
| 20260507041132 | 48 | 200 | 3.5 | 9.6 | 0.00 | 0.17 | 0.01 | 91 | 1010.0 |
| 20260507041031 | 48 | 249 | 5.2 | 9.6 | 0.00 | 0.17 | 0.01 | 91 | 1010.1 |
| 20260507040929 | 48 | 216 | 5.2 | 9.6 | 0.00 | 0.17 | 0.01 | 92 | 1010.0 |
| 20260507040828 | 48 | 260 | 4.3 | 8.7 | 0.00 | 0.17 | 0.01 | 92 | 1010.0 |
| 20260507040727 | 48 | 222 | 4.3 | 8.7 | 0.00 | 0.17 | 0.01 | 92 | 1010.0 |
| 20260507040626 | 48 | 230 | 3.5 | 8.7 | 0.00 | 0.17 | 0.01 | 92 | 1010.0 |
| 20260507040524 | 48 | 216 | 2.6 | 8.7 | 0.00 | 0.17 | 0.01 | 92 | 1010.0 |
| 20260507040422 | 48 | 229 | 3.5 | 8.7 | 0.00 | 0.17 | 0.01 | 92 | 1009.9 |
| 20260507040330 | 48 | 216 | 4.3 | 8.7 | 0.00 | 0.17 | 0.01 | 92 | 1009.9 |
| 20260507040251 | 48 | 195 | 4.3 | 8.7 | 0.00 | 0.17 | 0.01 | 92 | 1009.9 |
| 20260507040206 | 49 | 206 | 2.6 | 8.7 | 0.00 | 0.17 | 0.01 | 92 | 1009.9 |
| 20260507040020 | 48 | 264 | 3.5 | 6.1 | 0.00 | 0.17 | 0.01 | 92 | 1009.9 |
| 20260507035947 | 49 | 273 | 4.3 | 6.1 | 0.00 | 0.17 | 0.01 | 92 | 1010.0 |
| 20260507035914 | 49 | 216 | 4.3 | 7.0 | 0.00 | 0.17 | 0.01 | 92 | 1009.9 |
| 20260507035714 | 49 | 234 | 3.5 | 7.0 | 0.00 | 0.17 | 0.01 | 92 | 1009.9 |
| 20260507035613 | 49 | 206 | 2.6 | 7.0 | 0.00 | 0.17 | 0.01 | 92 | 1009.9 |
| 20260507035511 | 49 | 260 | 3.5 | 7.0 | 0.00 | 0.17 | 0.01 | 92 | 1009.9 |
| 20260507035410 | 49 | 242 | 3.5 | 7.0 | 0.00 | 0.17 | 0.01 | 92 | 1009.8 |
| 20260507035310 | 49 | 246 | 2.6 | 7.0 | 0.00 | 0.17 | 0.01 | 92 | 1009.9 |
| 20260507035207 | 49 | 233 | 3.5 | 7.0 | 0.00 | 0.17 | 0.01 | 92 | 1009.8 |
| 20260507035105 | 49 | 233 | 4.3 | 7.0 | 0.00 | 0.17 | 0.01 | 91 | 1009.9 |
| 20260507035002 | 49 | 211 | 4.3 | 7.8 | 0.00 | 0.17 | 0.01 | 91 | 1009.9 |
| 20260507034901 | 49 | 237 | 2.6 | 7.8 | 0.00 | 0.17 | 0.01 | 91 | 1009.9 |
| 20260507034700 | 49 | 234 | 1.7 | 7.8 | 0.00 | 0.18 | 0.01 | 91 | 1009.8 |
| 20260507034558 | 49 | 243 | 2.6 | 7.8 | 0.00 | 0.18 | 0.01 | 91 | 1009.9 |
| 20260507034501 | 49 | 211 | 3.5 | 7.8 | 0.00 | 0.18 | 0.01 | 91 | 1009.8 |
| 20260507034429 | 49 | 206 | 4.3 | 7.8 | 0.00 | 0.18 | 0.01 | 91 | 1009.9 |
| 20260507034250 | 49 | 240 | 4.3 | 7.8 | 0.00 | 0.18 | 0.01 | 91 | 1009.8 |
| 20260507034149 | 49 | 231 | 2.6 | 7.8 | 0.00 | 0.18 | 0.01 | 91 | 1009.8 |
| 20260507034047 | 49 | 234 | 0.9 | 6.1 | 0.00 | 0.18 | 0.01 | 91 | 1009.8 |
| 20260507033946 | 49 | 229 | 2.6 | 6.1 | 0.00 | 0.18 | 0.01 | 91 | 1009.8 |
| 20260507033843 | 49 | 233 | 2.6 | 6.1 | 0.00 | 0.18 | 0.01 | 91 | 1009.8 |
| 20260507033742 | 49 | 236 | 2.6 | 6.1 | 0.00 | 0.18 | 0.01 | 91 | 1009.8 |
| 20260507033641 | 49 | 236 | 2.6 | 6.1 | 0.00 | 0.18 | 0.01 | 91 | 1009.8 |
| 20260507033540 | 49 | 245 | 0.9 | 7.0 | 0.00 | 0.18 | 0.01 | 91 | 1009.7 |
| 20260507033439 | 49 | 245 | 1.7 | 7.0 | 0.00 | 0.18 | 0.01 | 91 | 1009.7 |
| 20260507033340 | 49 | 244 | 1.7 | 7.0 | 0.00 | 0.18 | 0.01 | 91 | 1009.7 |
| 20260507033238 | 49 | 238 | 1.7 | 7.0 | 0.00 | 0.18 | 0.01 | 91 | 1009.7 |
| 20260507033136 | 49 | 251 | 1.7 | 7.0 | 0.00 | 0.18 | 0.01 | 91 | 1009.7 |
| 20260507033035 | 49 | 230 | 1.7 | 7.8 | 0.00 | 0.18 | 0.01 | 91 | 1009.7 |
| 20260507032933 | 49 | 211 | 1.7 | 7.8 | 0.00 | 0.18 | 0.01 | 91 | 1009.6 |
| 20260507032832 | 49 | 201 | 2.6 | 7.8 | 0.00 | 0.18 | 0.01 | 91 | 1009.7 |
| 20260507032731 | 49 | 242 | 2.6 | 7.8 | 0.00 | 0.18 | 0.01 | 91 | 1009.7 |
| 20260507032629 | 49 | 231 | 1.7 | 8.7 | 0.00 | 0.18 | 0.01 | 91 | 1009.7 |
| 20260507032527 | 49 | 251 | 1.7 | 9.6 | 0.00 | 0.18 | 0.01 | 91 | 1009.7 |
| 20260507032426 | 49 | 220 | 2.6 | 9.6 | 0.00 | 0.18 | 0.01 | 91 | 1009.7 |
| 20260507032324 | 49 | 239 | 4.3 | 9.6 | 0.00 | 0.18 | 0.01 | 91 | 1009.7 |
| 20260507032222 | 49 | 241 | 3.5 | 9.6 | 0.00 | 0.18 | 0.01 | 91 | 1009.7 |
| 20260507032122 | 49 | 236 | 3.5 | 9.6 | 0.00 | 0.18 | 0.01 | 91 | 1009.7 |
| 20260507032020 | 49 | 216 | 4.3 | 9.6 | 0.00 | 0.18 | 0.01 | 91 | 1009.7 |
| 20260507031919 | 49 | 260 | 3.5 | 9.6 | 0.00 | 0.18 | 0.01 | 91 | 1009.7 |
| 20260507031818 | 49 | 236 | 5.2 | 9.6 | 0.00 | 0.18 | 0.01 | 91 | 1009.7 |
| 20260507031717 | 49 | 239 | 4.3 | 9.6 | 0.00 | 0.18 | 0.01 | 91 | 1009.7 |
| 20260507031616 | 49 | 177 | 2.6 | 7.8 | 0.00 | 0.18 | 0.01 | 91 | 1009.6 |
| 20260507031514 | 49 | 235 | 3.5 | 7.8 | 0.00 | 0.18 | 0.01 | 91 | 1009.7 |
| 20260507031412 | 49 | 268 | 3.5 | 7.8 | 0.00 | 0.18 | 0.01 | 91 | 1009.7 |
| 20260507031311 | 49 | 270 | 3.5 | 7.8 | 0.00 | 0.18 | 0.01 | 91 | 1009.7 |
| 20260507031210 | 49 | 247 | 3.5 | 7.8 | 0.00 | 0.18 | 0.01 | 91 | 1009.7 |
| 20260507031109 | 49 | 250 | 3.5 | 7.8 | 0.00 | 0.18 | 0.01 | 91 | 1009.7 |
| 20260507031002 | 49 | 216 | 3.5 | 7.8 | 0.00 | 0.18 | 0.01 | 91 | 1009.7 |
| 20260507030900 | 49 | 235 | 2.6 | 5.2 | 0.00 | 0.18 | 0.01 | 91 | 1009.7 |
| 20260507030800 | 49 | 216 | 0.9 | 5.2 | 0.00 | 0.18 | 0.01 | 92 | 1009.7 |
| 20260507030658 | 49 | 241 | 0.9 | 6.1 | 0.00 | 0.18 | 0.01 | 92 | 1009.7 |
| 20260507030558 | 49 | 246 | 0.9 | 6.1 | 0.00 | 0.18 | 0.01 | 92 | 1009.6 |
| 20260507030505 | 49 | 246 | 1.7 | 6.1 | 0.00 | 0.18 | 0.01 | 92 | 1009.6 |
| 20260507030355 | 49 | 246 | 1.7 | 6.1 | 0.00 | 0.18 | 0.01 | 92 | 1009.6 |
| 20260507030255 | 49 | 244 | 2.6 | 6.1 | 0.00 | 0.18 | 0.01 | 92 | 1009.6 |
| 20260507030152 | 50 | 260 | 2.6 | 6.1 | 0.00 | 0.18 | 0.01 | 92 | 1009.6 |
| 20260507030057 | 50 | 236 | 2.6 | 6.1 | 0.00 | 0.18 | 0.01 | 92 | 1009.6 |
| 20260507025949 | 50 | 264 | 2.6 | 6.1 | 0.00 | 0.18 | 0.01 | 92 | 1009.6 |
| 20260507025849 | 50 | 263 | 2.6 | 6.1 | 0.00 | 0.18 | 0.01 | 92 | 1009.6 |
| 20260507025646 | 50 | 240 | 3.5 | 6.1 | 0.00 | 0.18 | 0.01 | 92 | 1009.6 |
| 20260507025545 | 50 | 252 | 2.6 | 7.0 | 0.00 | 0.18 | 0.01 | 92 | 1009.6 |
| 20260507025444 | 50 | 243 | 2.6 | 7.0 | 0.00 | 0.18 | 0.01 | 92 | 1009.6 |
| 20260507025342 | 50 | 230 | 3.5 | 7.0 | 0.00 | 0.18 | 0.01 | 92 | 1009.6 |
| 20260507025241 | 50 | 270 | 3.5 | 7.0 | 0.00 | 0.18 | 0.01 | 92 | 1009.6 |
| 20260507025140 | 50 | 247 | 3.5 | 7.0 | 0.00 | 0.18 | 0.01 | 92 | 1009.6 |
| 20260507025040 | 50 | 216 | 3.5 | 7.0 | 0.00 | 0.18 | 0.01 | 92 | 1009.6 |
| 20260507024938 | 50 | 253 | 3.5 | 7.0 | 0.00 | 0.18 | 0.01 | 92 | 1009.6 |
| 20260507024837 | 50 | 228 | 4.3 | 7.0 | 0.00 | 0.18 | 0.01 | 92 | 1009.6 |
| 20260507024735 | 50 | 284 | 4.3 | 7.0 | 0.00 | 0.18 | 0.01 | 92 | 1009.6 |
| 20260507024634 | 50 | 292 | 3.5 | 7.0 | 0.00 | 0.18 | 0.01 | 92 | 1009.6 |
| 20260507024532 | 50 | 260 | 2.6 | 5.2 | 0.00 | 0.18 | 0.01 | 92 | 1009.6 |
| 20260507024431 | 50 | 286 | 2.6 | 5.2 | 0.00 | 0.18 | 0.01 | 92 | 1009.6 |
| 20260507024329 | 50 | 241 | 2.6 | 5.2 | 0.00 | 0.18 | 0.01 | 92 | 1009.6 |
| 20260507024229 | 50 | 248 | 1.7 | 6.1 | 0.00 | 0.18 | 0.01 | 92 | 1009.5 |
| 20260507024128 | 50 | 222 | 0.9 | 6.1 | 0.00 | 0.18 | 0.01 | 92 | 1009.6 |
| 20260507024025 | 50 | 264 | 1.7 | 6.1 | 0.00 | 0.18 | 0.01 | 92 | 1009.5 |
| 20260507023928 | 50 | 264 | 2.6 | 6.1 | 0.00 | 0.18 | 0.01 | 92 | 1009.6 |
| 20260507023821 | 50 | 264 | 2.6 | 6.1 | 0.00 | 0.18 | 0.01 | 92 | 1009.5 |
| 20260507023727 | 50 | 239 | 2.6 | 6.1 | 0.00 | 0.18 | 0.01 | 92 | 1009.5 |
| 20260507023651 | 50 | 237 | 3.5 | 6.1 | 0.00 | 0.18 | 0.01 | 92 | 1009.5 |
| 20260507023618 | 50 | 216 | 3.5 | 6.1 | 0.00 | 0.18 | 0.01 | 92 | 1009.5 |
| 20260507023436 | 50 | 249 | 4.3 | 6.1 | 0.00 | 0.18 | 0.01 | 92 | 1009.5 |
| 20260507023405 | 50 | 264 | 3.5 | 6.1 | 0.00 | 0.18 | 0.01 | 92 | 1009.5 |
| 20260507023215 | 50 | 269 | 3.5 | 6.1 | 0.00 | 0.18 | 0.01 | 92 | 1009.5 |
| 20260507023113 | 50 | 251 | 3.5 | 6.1 | 0.00 | 0.18 | 0.01 | 92 | 1009.5 |
| 20260507023012 | 50 | 274 | 3.5 | 6.1 | 0.00 | 0.18 | 0.01 | 92 | 1009.5 |
| 20260507022911 | 50 | 230 | 2.6 | 6.1 | 0.00 | 0.18 | 0.01 | 92 | 1009.6 |
| 20260507022810 | 50 | 253 | 1.7 | 5.2 | 0.00 | 0.18 | 0.01 | 92 | 1009.5 |
| 20260507022708 | 50 | 230 | 1.7 | 5.2 | 0.00 | 0.18 | 0.01 | 92 | 1009.6 |
| 20260507022607 | 50 | 256 | 1.7 | 5.2 | 0.00 | 0.18 | 0.01 | 92 | 1009.6 |
| 20260507022507 | 50 | 237 | 0.9 | 5.2 | 0.00 | 0.18 | 0.01 | 92 | 1009.5 |
| 20260507022430 | 50 | 225 | 0.9 | 5.2 | 0.00 | 0.18 | 0.01 | 92 | 1009.5 |
| 20260507022354 | 50 | 216 | 1.7 | 5.2 | 0.00 | 0.18 | 0.01 | 92 | 1009.6 |
| 20260507022201 | 50 | 216 | 2.6 | 5.2 | 0.00 | 0.18 | 0.01 | 92 | 1009.5 |
| 20260507022059 | 50 | 216 | 1.7 | 5.2 | 0.00 | 0.18 | 0.01 | 92 | 1009.5 |
| 20260507022000 | 50 | 216 | 1.7 | 5.2 | 0.00 | 0.18 | 0.01 | 92 | 1009.5 |
| 20260507021856 | 50 | 255 | 1.7 | 5.2 | 0.00 | 0.18 | 0.01 | 92 | 1009.5 |
| 20260507021754 | 50 | 241 | 1.7 | 5.2 | 0.00 | 0.18 | 0.01 | 92 | 1009.5 |
| 20260507021655 | 50 | 255 | 1.7 | 5.2 | 0.00 | 0.18 | 0.01 | 92 | 1009.5 |
| 20260507021548 | 50 | 247 | 1.7 | 5.2 | 0.00 | 0.18 | 0.01 | 92 | 1009.5 |
| 20260507021447 | 50 | 216 | 0.9 | 5.2 | 0.00 | 0.18 | 0.01 | 92 | 1009.5 |
| 20260507021346 | 50 | 239 | 1.7 | 7.8 | 0.00 | 0.18 | 0.01 | 92 | 1009.5 |
| 20260507021145 | 50 | 238 | 2.6 | 7.8 | 0.00 | 0.18 | 0.01 | 92 | 1009.5 |
| 20260507021044 | 50 | 245 | 2.6 | 7.8 | 0.00 | 0.18 | 0.01 | 92 | 1009.5 |
| 20260507020950 | 50 | 238 | 1.7 | 7.8 | 0.00 | 0.18 | 0.01 | 92 | 1009.5 |
| 20260507020840 | 50 | 216 | 1.7 | 7.8 | 0.00 | 0.18 | 0.01 | 92 | 1009.4 |
| 20260507020638 | 50 | 240 | 3.5 | 7.8 | 0.00 | 0.18 | 0.01 | 92 | 1009.4 |
| 20260507020531 | 50 | 226 | 3.5 | 7.8 | 0.00 | 0.18 | 0.01 | 92 | 1009.4 |
| 20260507020430 | 50 | 216 | 2.6 | 7.8 | 0.00 | 0.18 | 0.01 | 92 | 1009.4 |
| 20260507020331 | 50 | 152 | 1.7 | 7.8 | 0.00 | 0.18 | 0.01 | 92 | 1009.4 |
| 20260507020225 | 50 | 203 | 1.7 | 7.8 | 0.00 | 0.18 | 0.01 | 92 | 1009.4 |
| 20260507020124 | 50 | 216 | 1.7 | 7.8 | 0.00 | 0.18 | 0.01 | 92 | 1009.4 |
| 20260507020023 | 50 | 233 | 1.7 | 7.8 | 0.00 | 0.18 | 0.01 | 92 | 1009.4 |
| 20260507015922 | 50 | 227 | 3.5 | 7.8 | 0.00 | 0.18 | 0.01 | 92 | 1009.4 |
| 20260507015821 | 50 | 236 | 2.6 | 7.8 | 0.00 | 0.18 | 0.01 | 92 | 1009.4 |
| 20260507015719 | 50 | 216 | 1.7 | 7.0 | 0.00 | 0.18 | 0.01 | 92 | 1009.4 |
| 20260507015618 | 50 | 216 | 1.7 | 4.3 | 0.00 | 0.18 | 0.01 | 92 | 1009.4 |
| 20260507015518 | 50 | 225 | 2.6 | 4.3 | 0.00 | 0.18 | 0.01 | 92 | 1009.4 |
| 20260507015417 | 50 | 211 | 2.6 | 5.2 | 0.00 | 0.18 | 0.01 | 92 | 1009.4 |
| 20260507015314 | 50 | 245 | 1.7 | 5.2 | 0.00 | 0.18 | 0.01 | 92 | 1009.3 |
| 20260507015213 | 50 | 206 | 0.9 | 8.7 | 0.00 | 0.18 | 0.01 | 92 | 1009.4 |
| 20260507015114 | 50 | 195 | 1.7 | 8.7 | 0.00 | 0.18 | 0.01 | 92 | 1009.4 |
| 20260507015013 | 50 | 195 | 1.7 | 8.7 | 0.00 | 0.18 | 0.01 | 92 | 1009.3 |
| 20260507014912 | 50 | 216 | 2.6 | 8.7 | 0.00 | 0.18 | 0.01 | 92 | 1009.4 |
| 20260507014801 | 50 | 232 | 1.7 | 8.7 | 0.00 | 0.18 | 0.01 | 92 | 1009.3 |
| 20260507014702 | 50 | 230 | 1.7 | 8.7 | 0.00 | 0.18 | 0.01 | 92 | 1009.4 |
| 20260507014601 | 50 | 249 | 3.5 | 8.7 | 0.00 | 0.18 | 0.01 | 92 | 1009.3 |
| 20260507014501 | 50 | 258 | 4.3 | 8.7 | 0.00 | 0.18 | 0.01 | 92 | 1009.3 |
| 20260507014416 | 50 | 252 | 3.5 | 8.7 | 0.00 | 0.18 | 0.01 | 92 | 1009.4 |
| 20260507014342 | 50 | 222 | 2.6 | 8.7 | 0.00 | 0.18 | 0.01 | 92 | 1009.3 |
| 20260507014150 | 51 | 216 | 3.5 | 5.2 | 0.00 | 0.18 | 0.01 | 92 | 1009.3 |
| 20260507014050 | 50 | 231 | 1.7 | 5.2 | 0.00 | 0.18 | 0.01 | 92 | 1009.3 |
| 20260507013948 | 51 | 260 | 0.9 | 5.2 | 0.00 | 0.18 | 0.01 | 92 | 1009.3 |
| 20260507013847 | 51 | 235 | 1.7 | 5.2 | 0.00 | 0.18 | 0.01 | 92 | 1009.4 |
| 20260507013745 | 51 | 216 | 1.7 | 5.2 | 0.00 | 0.18 | 0.01 | 92 | 1009.4 |
| 20260507013645 | 51 | 258 | 1.7 | 6.1 | 0.00 | 0.18 | 0.01 | 92 | 1009.3 |
| 20260507013542 | 51 | 211 | 1.7 | 6.1 | 0.00 | 0.18 | 0.01 | 92 | 1009.4 |
| 20260507013442 | 51 | 211 | 2.6 | 6.1 | 0.00 | 0.18 | 0.01 | 92 | 1009.3 |
| 20260507013340 | 51 | 179 | 2.6 | 6.1 | 0.00 | 0.18 | 0.01 | 92 | 1009.3 |
| 20260507013250 | 51 | 221 | 2.6 | 6.1 | 0.00 | 0.18 | 0.01 | 92 | 1009.3 |
| 20260507013153 | 51 | 236 | 2.6 | 6.1 | 0.00 | 0.18 | 0.01 | 92 | 1009.3 |
| 20260507013115 | 51 | 211 | 3.5 | 6.1 | 0.00 | 0.18 | 0.01 | 92 | 1009.3 |
| 20260507012935 | 51 | 224 | 3.5 | 6.1 | 0.00 | 0.18 | 0.01 | 92 | 1009.3 |
| 20260507012905 | 51 | 211 | 3.5 | 7.8 | 0.00 | 0.18 | 0.01 | 92 | 1009.2 |
| 20260507012832 | 51 | 250 | 2.6 | 7.8 | 0.00 | 0.18 | 0.01 | 92 | 1009.3 |
| 20260507012640 | 51 | 200 | 1.7 | 7.8 | 0.00 | 0.18 | 0.01 | 92 | 1009.2 |
| 20260507012531 | 51 | 312 | 1.7 | 7.8 | 0.00 | 0.18 | 0.01 | 92 | 1009.3 |
| 20260507012429 | 51 | 211 | 1.7 | 7.8 | 0.00 | 0.18 | 0.01 | 92 | 1009.3 |
| 20260507012328 | 51 | 245 | 1.7 | 7.8 | 0.00 | 0.18 | 0.01 | 92 | 1009.2 |
| 20260507012115 | 51 | 211 | 2.6 | 7.8 | 0.00 | 0.18 | 0.01 | 92 | 1009.3 |
| 20260507012013 | 51 | 203 | 2.6 | 7.8 | 0.00 | 0.18 | 0.01 | 92 | 1009.3 |
| 20260507011913 | 51 | 255 | 2.6 | 7.0 | 0.00 | 0.18 | 0.01 | 92 | 1009.3 |
| 20260507011812 | 51 | 266 | 2.6 | 7.0 | 0.00 | 0.18 | 0.01 | 92 | 1009.2 |
| 20260507011710 | 51 | 229 | 2.6 | 7.0 | 0.00 | 0.18 | 0.01 | 92 | 1009.2 |
| 20260507011608 | 51 | 257 | 3.5 | 7.0 | 0.00 | 0.18 | 0.01 | 92 | 1009.2 |
| 20260507011509 | 51 | 216 | 2.6 | 7.8 | 0.00 | 0.18 | 0.01 | 92 | 1009.2 |
| 20260507011415 | 51 | 233 | 3.5 | 8.7 | 0.00 | 0.18 | 0.01 | 92 | 1009.2 |
| 20260507011301 | 51 | 250 | 3.5 | 8.7 | 0.00 | 0.18 | 0.01 | 92 | 1009.2 |
| 20260507011152 | 51 | 259 | 3.5 | 8.7 | 0.00 | 0.18 | 0.01 | 92 | 1009.2 |
| 20260507011050 | 51 | 225 | 3.5 | 8.7 | 0.00 | 0.18 | 0.01 | 92 | 1009.2 |
| 20260507010949 | 51 | 255 | 4.3 | 8.7 | 0.00 | 0.18 | 0.01 | 92 | 1009.2 |
| 20260507010907 | 51 | 202 | 4.3 | 8.7 | 0.00 | 0.18 | 0.01 | 92 | 1009.2 |
| 20260507010837 | 51 | 234 | 5.2 | 8.7 | 0.00 | 0.18 | 0.01 | 92 | 1009.1 |
| 20260507010647 | 51 | 223 | 5.2 | 8.7 | 0.00 | 0.18 | 0.01 | 92 | 1009.2 |
| 20260507010545 | 51 | 221 | 4.3 | 8.7 | 0.00 | 0.18 | 0.01 | 92 | 1009.2 |
| 20260507010445 | 51 | 234 | 3.5 | 8.7 | 0.00 | 0.18 | 0.01 | 92 | 1009.2 |
| 20260507010405 | 51 | 220 | 2.6 | 8.7 | 0.00 | 0.18 | 0.01 | 92 | 1009.3 |
| 20260507010332 | 51 | 203 | 1.7 | 8.7 | 0.00 | 0.18 | 0.01 | 92 | 1009.2 |
| 20260507010140 | 51 | 152 | 4.3 | 8.7 | 0.00 | 0.18 | 0.01 | 92 | 1009.2 |
| 20260507010038 | 51 | 261 | 5.2 | 8.7 | 0.00 | 0.18 | 0.01 | 92 | 1009.2 |
| 20260507005940 | 51 | 257 | 2.6 | 8.7 | 0.00 | 0.18 | 0.01 | 92 | 1009.3 |
| 20260507005902 | 51 | 216 | 1.7 | 7.8 | 0.00 | 0.18 | 0.01 | 93 | 1009.2 |
| 20260507005828 | 51 | 194 | 2.6 | 7.8 | 0.00 | 0.18 | 0.01 | 93 | 1009.2 |
| 20260507005634 | 51 | 206 | 1.7 | 7.8 | 0.00 | 0.18 | 0.01 | 93 | 1009.2 |
| 20260507005533 | 51 | 216 | 2.6 | 7.8 | 0.00 | 0.18 | 0.01 | 92 | 1009.2 |
| 20260507005434 | 51 | 249 | 2.6 | 7.8 | 0.00 | 0.18 | 0.01 | 92 | 1009.2 |
| 20260507005332 | 51 | 234 | 3.5 | 7.8 | 0.00 | 0.18 | 0.01 | 93 | 1009.3 |
| 20260507005230 | 51 | 226 | 3.5 | 7.8 | 0.00 | 0.18 | 0.01 | 92 | 1009.3 |
| 20260507005129 | 51 | 240 | 2.6 | 7.8 | 0.00 | 0.18 | 0.01 | 93 | 1009.3 |
| 20260507005027 | 51 | 172 | 3.5 | 7.8 | 0.00 | 0.18 | 0.01 | 93 | 1009.3 |
| 20260507004929 | 51 | 211 | 3.5 | 7.8 | 0.00 | 0.18 | 0.01 | 92 | 1009.2 |
| 20260507004855 | 51 | 211 | 2.6 | 5.2 | 0.00 | 0.18 | 0.01 | 92 | 1009.3 |
| 20260507004824 | 51 | 253 | 2.6 | 5.2 | 0.00 | 0.18 | 0.01 | 92 | 1009.2 |
| 20260507004623 | 51 | 262 | 3.5 | 5.2 | 0.00 | 0.18 | 0.01 | 92 | 1009.2 |
| 20260507004522 | 51 | 258 | 2.6 | 5.2 | 0.00 | 0.18 | 0.01 | 92 | 1009.2 |
| 20260507004421 | 51 | 206 | 2.6 | 7.0 | 0.00 | 0.18 | 0.01 | 92 | 1009.2 |
| 20260507004319 | 51 | 202 | 2.6 | 7.0 | 0.00 | 0.18 | 0.01 | 92 | 1009.2 |
| 20260507004220 | 51 | 242 | 1.7 | 7.0 | 0.00 | 0.18 | 0.01 | 92 | 1009.2 |
| 20260507004121 | 51 | 211 | 2.6 | 7.0 | 0.00 | 0.18 | 0.01 | 92 | 1009.1 |
| 20260507004023 | 51 | 206 | 2.6 | 7.0 | 0.00 | 0.18 | 0.01 | 92 | 1009.2 |
| 20260507003914 | 51 | 237 | 1.7 | 7.0 | 0.00 | 0.18 | 0.01 | 92 | 1009.2 |
| 20260507003812 | 51 | 253 | 1.7 | 7.8 | 0.00 | 0.18 | 0.01 | 92 | 1009.2 |
| 20260507003609 | 51 | 248 | 3.5 | 7.8 | 0.00 | 0.18 | 0.01 | 92 | 1009.1 |
| 20260507003507 | 51 | 216 | 2.6 | 7.8 | 0.01 | 0.18 | 0.01 | 92 | 1009.1 |
| 20260507003409 | 51 | 206 | 1.7 | 7.8 | 0.01 | 0.18 | 0.01 | 92 | 1009.1 |
| 20260507003307 | 51 | 206 | 1.7 | 7.8 | 0.01 | 0.18 | 0.01 | 92 | 1009.1 |
| 20260507003206 | 51 | 211 | 2.6 | 7.8 | 0.01 | 0.18 | 0.01 | 92 | 1009.1 |
| 20260507003102 | 51 | 211 | 3.5 | 7.8 | 0.01 | 0.18 | 0.01 | 92 | 1009.1 |
| 20260507003002 | 51 | 220 | 3.5 | 7.8 | 0.01 | 0.18 | 0.01 | 92 | 1009.1 |
| 20260507002900 | 51 | 260 | 2.6 | 7.8 | 0.01 | 0.18 | 0.01 | 92 | 1009.1 |
| 20260507002759 | 51 | 249 | 1.7 | 4.3 | 0.01 | 0.18 | 0.01 | 92 | 1009.2 |
| 20260507002657 | 51 | 239 | 0.9 | 4.3 | 0.01 | 0.18 | 0.01 | 92 | 1009.2 |
| 20260507002556 | 51 | 230 | 0.9 | 4.3 | 0.01 | 0.18 | 0.01 | 92 | 1009.2 |
| 20260507002454 | 51 | 250 | 0.9 | 4.3 | 0.01 | 0.18 | 0.01 | 92 | 1009.1 |
| 20260507002406 | 51 | 240 | 0.9 | 4.3 | 0.01 | 0.18 | 0.01 | 92 | 1009.1 |
| 20260507002331 | 51 | 216 | 1.7 | 4.3 | 0.01 | 0.18 | 0.01 | 92 | 1009.1 |
| 20260507002153 | 51 | 216 | 1.7 | 4.3 | 0.01 | 0.18 | 0.01 | 92 | 1009.1 |
| 20260507002048 | 51 | 216 | 1.7 | 4.3 | 0.01 | 0.18 | 0.01 | 92 | 1009.1 |
| 20260507001947 | 51 | 216 | 1.7 | 7.0 | 0.01 | 0.18 | 0.01 | 92 | 1009.1 |
| 20260507001852 | 51 | 216 | 1.7 | 7.0 | 0.01 | 0.18 | 0.01 | 92 | 1009.1 |
| 20260507001745 | 51 | 229 | 1.7 | 7.0 | 0.01 | 0.18 | 0.01 | 92 | 1009.1 |
| 20260507001644 | 51 | 220 | 1.7 | 7.0 | 0.01 | 0.18 | 0.01 | 92 | 1009.2 |
| 20260507001542 | 51 | 232 | 1.7 | 7.0 | 0.01 | 0.18 | 0.01 | 92 | 1009.2 |
| 20260507001441 | 51 | 220 | 1.7 | 7.0 | 0.01 | 0.18 | 0.01 | 92 | 1009.2 |
| 20260507001341 | 51 | 211 | 0.9 | 7.0 | 0.01 | 0.18 | 0.01 | 92 | 1009.2 |
| 20260507001240 | 51 | 182 | 2.6 | 7.0 | 0.01 | 0.18 | 0.01 | 92 | 1009.2 |
| 20260507001137 | 51 | 255 | 3.5 | 7.0 | 0.01 | 0.18 | 0.01 | 92 | 1009.2 |
| 20260507001036 | 51 | 230 | 2.6 | 7.0 | 0.01 | 0.18 | 0.01 | 92 | 1009.2 |
| 20260507000934 | 51 | 191 | 2.6 | 6.1 | 0.01 | 0.18 | 0.01 | 92 | 1009.2 |
| 20260507000833 | 51 | 231 | 3.5 | 6.1 | 0.01 | 0.18 | 0.01 | 92 | 1009.2 |
| 20260507000732 | 51 | 224 | 2.6 | 6.1 | 0.01 | 0.18 | 0.01 | 92 | 1009.2 |
| 20260507000637 | 51 | 237 | 3.5 | 6.1 | 0.01 | 0.18 | 0.01 | 92 | 1009.3 |
| 20260507000536 | 51 | 222 | 3.5 | 6.1 | 0.01 | 0.18 | 0.01 | 92 | 1009.2 |
| 20260507000428 | 51 | 216 | 2.6 | 6.1 | 0.01 | 0.18 | 0.01 | 92 | 1009.3 |
| 20260507000328 | 51 | 222 | 2.6 | 6.1 | 0.01 | 0.18 | 0.01 | 92 | 1009.2 |
| 20260507000226 | 51 | 176 | 2.6 | 6.1 | 0.01 | 0.18 | 0.01 | 92 | 1009.2 |
| 20260507000124 | 51 | 199 | 1.7 | 4.3 | 0.01 | 0.18 | 0.01 | 92 | 1009.2 |
| 20260507000023 | 51 | 211 | 1.7 | 4.3 | 0.01 | 0.18 | 0.01 | 92 | 1009.2 |
| 20260506235922 | 51 | 241 | 1.7 | 6.1 | 0.01 | 0.18 | 0.01 | 92 | 1009.2 |
| 20260506235821 | 51 | 245 | 1.7 | 6.1 | 0.01 | 0.18 | 0.01 | 92 | 1009.2 |
| 20260506235719 | 51 | 216 | 0.9 | 6.1 | 0.01 | 0.18 | 0.01 | 92 | 1009.2 |
| 20260506235619 | 51 | 216 | 0.9 | 6.1 | 0.01 | 0.18 | 0.01 | 92 | 1009.2 |
| 20260506235518 | 51 | 216 | 1.7 | 6.1 | 0.01 | 0.18 | 0.01 | 92 | 1009.2 |
| 20260506235415 | 51 | 216 | 1.7 | 6.1 | 0.01 | 0.18 | 0.01 | 92 | 1009.2 |
| 20260506235315 | 51 | 216 | 2.6 | 7.0 | 0.01 | 0.18 | 0.01 | 92 | 1009.1 |
| 20260506235212 | 51 | 216 | 2.6 | 7.0 | 0.01 | 0.18 | 0.01 | 92 | 1009.1 |
| 20260506235113 | 51 | 223 | 2.6 | 7.0 | 0.01 | 0.18 | 0.01 | 92 | 1009.2 |
| 20260506235011 | 51 | 235 | 2.6 | 7.0 | 0.01 | 0.18 | 0.01 | 92 | 1009.2 |
| 20260506234910 | 51 | 216 | 0.9 | 7.0 | 0.01 | 0.18 | 0.01 | 92 | 1009.2 |
| 20260506234808 | 51 | 211 | 0.9 | 7.0 | 0.01 | 0.18 | 0.01 | 92 | 1009.1 |
| 20260506234707 | 51 | 220 | 0.9 | 7.0 | 0.01 | 0.18 | 0.01 | 92 | 1009.2 |
| 20260506234606 | 51 | 222 | 3.5 | 7.0 | 0.01 | 0.18 | 0.01 | 92 | 1009.2 |
| 20260506234505 | 51 | 222 | 4.3 | 7.0 | 0.01 | 0.18 | 0.01 | 92 | 1009.2 |
| 20260506234404 | 51 | 252 | 4.3 | 7.0 | 0.01 | 0.18 | 0.01 | 92 | 1009.2 |
| 20260506234310 | 51 | 227 | 3.5 | 8.7 | 0.01 | 0.18 | 0.01 | 92 | 1009.2 |
| 20260506234103 | 51 | 237 | 3.5 | 8.7 | 0.01 | 0.18 | 0.01 | 92 | 1009.2 |
| 20260506233958 | 51 | 216 | 3.5 | 8.7 | 0.01 | 0.18 | 0.01 | 92 | 1009.2 |
| 20260506233906 | 51 | 220 | 3.5 | 8.7 | 0.01 | 0.18 | 0.01 | 92 | 1009.1 |
| 20260506233832 | 51 | 203 | 3.5 | 8.7 | 0.01 | 0.18 | 0.01 | 92 | 1009.2 |
| 20260506233758 | 51 | 216 | 4.3 | 8.7 | 0.01 | 0.18 | 0.01 | 92 | 1009.1 |
| 20260506233552 | 51 | 236 | 5.2 | 8.7 | 0.01 | 0.18 | 0.01 | 92 | 1009.2 |
| 20260506233451 | 51 | 223 | 5.2 | 8.7 | 0.00 | 0.17 | 0.01 | 92 | 1009.1 |
| 20260506233351 | 51 | 229 | 3.5 | 8.7 | 0.00 | 0.17 | 0.00 | 92 | 1009.1 |
| 20260506233248 | 51 | 206 | 4.3 | 8.7 | 0.00 | 0.17 | 0.00 | 92 | 1009.1 |
| 20260506233147 | 51 | 241 | 5.2 | 8.7 | 0.00 | 0.17 | 0.00 | 92 | 1009.0 |
| 20260506233045 | 51 | 216 | 3.5 | 8.7 | 0.00 | 0.17 | 0.00 | 92 | 1009.1 |
| 20260506232943 | 51 | 216 | 1.7 | 7.0 | 0.00 | 0.17 | 0.00 | 92 | 1009.1 |
| 20260506232857 | 51 | 272 | 2.6 | 7.0 | 0.00 | 0.17 | 0.00 | 92 | 1009.0 |
| 20260506232827 | 51 | 216 | 2.6 | 7.0 | 0.00 | 0.17 | 0.00 | 92 | 1009.0 |
| 20260506232640 | 51 | 216 | 2.6 | 7.0 | 0.00 | 0.17 | 0.00 | 92 | 1009.1 |
| 20260506232539 | 51 | 211 | 2.6 | 7.0 | 0.00 | 0.17 | 0.00 | 92 | 1009.1 |
| 20260506232437 | 51 | 245 | 2.6 | 7.0 | 0.00 | 0.17 | 0.00 | 92 | 1009.1 |
| 20260506232337 | 52 | 234 | 2.6 | 7.0 | 0.00 | 0.17 | 0.00 | 92 | 1009.1 |
| 20260506232235 | 52 | 235 | 2.6 | 7.0 | 0.00 | 0.17 | 0.00 | 92 | 1009.1 |
| 20260506232134 | 51 | 206 | 1.7 | 7.0 | 0.00 | 0.17 | 0.00 | 92 | 1009.1 |
| 20260506232032 | 51 | 183 | 1.7 | 7.0 | 0.00 | 0.17 | 0.00 | 92 | 1009.1 |
| 20260506231931 | 51 | 237 | 1.7 | 7.0 | 0.00 | 0.17 | 0.00 | 92 | 1009.1 |
| 20260506231828 | 51 | 252 | 1.7 | 7.0 | 0.00 | 0.17 | 0.00 | 92 | 1009.1 |
| 20260506231728 | 52 | 243 | 1.7 | 7.0 | 0.00 | 0.17 | 0.00 | 92 | 1009.1 |
| 20260506231628 | 52 | 256 | 2.6 | 7.0 | 0.00 | 0.17 | 0.00 | 92 | 1009.1 |
| 20260506231524 | 52 | 278 | 3.5 | 7.0 | 0.00 | 0.17 | 0.00 | 92 | 1009.0 |
| 20260506231425 | 52 | 216 | 3.5 | 7.0 | 0.00 | 0.17 | 0.00 | 92 | 1009.0 |
| 20260506231328 | 52 | 230 | 2.6 | 7.0 | 0.00 | 0.17 | 0.00 | 92 | 1009.0 |
| 20260506231226 | 52 | 260 | 2.6 | 7.0 | 0.00 | 0.17 | 0.00 | 92 | 1009.0 |
| 20260506231119 | 52 | 282 | 2.6 | 7.0 | 0.00 | 0.17 | 0.00 | 92 | 1009.0 |
| 20260506231020 | 52 | 238 | 1.7 | 5.2 | 0.00 | 0.17 | 0.00 | 92 | 1009.0 |
| 20260506230917 | 52 | 203 | 1.7 | 4.3 | 0.00 | 0.17 | 0.00 | 92 | 1009.0 |
| 20260506230816 | 52 | 198 | 1.7 | 4.3 | 0.00 | 0.17 | 0.00 | 92 | 1009.0 |
| 20260506230723 | 52 | 206 | 0.9 | 4.3 | 0.00 | 0.17 | 0.00 | 92 | 1009.0 |
| 20260506230613 | 52 | 206 | 1.7 | 4.3 | 0.00 | 0.17 | 0.00 | 92 | 1009.0 |
| 20260506230516 | 52 | 206 | 0.9 | 4.3 | 0.00 | 0.17 | 0.00 | 92 | 1009.0 |
| 20260506230413 | 52 | 206 | 0.0 | 4.3 | 0.00 | 0.17 | 0.00 | 92 | 1009.0 |
| 20260506230310 | 52 | 206 | 0.0 | 4.3 | 0.00 | 0.17 | 0.00 | 92 | 1008.9 |
| 20260506230210 | 52 | 206 | 1.7 | 4.3 | 0.00 | 0.17 | 0.00 | 92 | 1008.9 |
| 20260506225957 | 52 | 216 | 1.7 | 4.3 | 0.00 | 0.17 | 0.00 | 92 | 1008.9 |
| 20260506225854 | 52 | 211 | 0.9 | 4.3 | 0.00 | 0.17 | 0.00 | 92 | 1008.9 |
| 20260506225753 | 52 | 199 | 1.7 | 4.3 | 0.00 | 0.17 | 0.00 | 92 | 1008.9 |
| 20260506225553 | 52 | 211 | 2.6 | 5.2 | 0.00 | 0.17 | 0.00 | 92 | 1008.9 |
| 20260506225450 | 52 | 267 | 1.7 | 6.1 | 0.00 | 0.17 | 0.00 | 92 | 1008.8 |
| 20260506225352 | 52 | 256 | 0.0 | 6.1 | 0.00 | 0.17 | 0.00 | 92 | 1008.9 |
| 20260506225316 | 52 | 216 | 0.9 | 6.1 | 0.00 | 0.17 | 0.00 | 92 | 1008.9 |
| 20260506225246 | 52 | 216 | 0.9 | 6.1 | 0.00 | 0.17 | 0.00 | 92 | 1008.9 |
| 20260506225049 | 52 | 216 | 1.7 | 6.1 | 0.00 | 0.17 | 0.00 | 92 | 1008.8 |
| 20260506224942 | 52 | 216 | 2.6 | 6.1 | 0.00 | 0.17 | 0.00 | 93 | 1008.8 |
| 20260506224841 | 52 | 241 | 2.6 | 6.1 | 0.00 | 0.17 | 0.00 | 92 | 1008.8 |
| 20260506224739 | 52 | 237 | 1.7 | 6.1 | 0.00 | 0.17 | 0.00 | 92 | 1008.9 |
| 20260506224538 | 52 | 256 | 1.7 | 6.1 | 0.00 | 0.17 | 0.00 | 92 | 1008.7 |
| 20260506224436 | 52 | 262 | 1.7 | 4.3 | 0.00 | 0.17 | 0.00 | 92 | 1008.8 |
| 20260506224336 | 52 | 221 | 1.7 | 4.3 | 0.00 | 0.17 | 0.00 | 92 | 1008.8 |
| 20260506224228 | 52 | 278 | 0.9 | 4.3 | 0.00 | 0.17 | 0.00 | 92 | 1008.8 |
| 20260506224126 | 52 | 255 | 0.9 | 4.3 | 0.00 | 0.17 | 0.00 | 92 | 1008.9 |
| 20260506224027 | 52 | 245 | 1.7 | 3.5 | 0.00 | 0.17 | 0.00 | 92 | 1008.8 |
| 20260506223925 | 52 | 245 | 1.7 | 3.5 | 0.00 | 0.17 | 0.00 | 92 | 1008.7 |
| 20260506223824 | 52 | 206 | 1.7 | 3.5 | 0.00 | 0.17 | 0.00 | 92 | 1008.7 |
| 20260506223724 | 52 | 216 | 0.9 | 3.5 | 0.00 | 0.17 | 0.00 | 92 | 1008.8 |
| 20260506223622 | 52 | 216 | 0.0 | 3.5 | 0.01 | 0.17 | 0.00 | 92 | 1008.8 |
| 20260506223522 | 52 | 216 | 0.0 | 3.5 | 0.01 | 0.17 | 0.00 | 92 | 1008.7 |
| 20260506223414 | 52 | 216 | 0.9 | 3.5 | 0.01 | 0.17 | 0.00 | 92 | 1008.8 |
| 20260506223313 | 52 | 216 | 0.9 | 5.2 | 0.01 | 0.17 | 0.00 | 92 | 1008.8 |
| 20260506223211 | 52 | 211 | 1.7 | 5.2 | 0.01 | 0.17 | 0.00 | 92 | 1008.8 |
| 20260506223108 | 52 | 224 | 0.9 | 5.2 | 0.01 | 0.17 | 0.00 | 92 | 1008.7 |
| 20260506223010 | 52 | 245 | 0.9 | 5.2 | 0.01 | 0.17 | 0.00 | 92 | 1008.7 |
| 20260506222901 | 52 | 246 | 0.0 | 6.1 | 0.01 | 0.17 | 0.00 | 92 | 1008.7 |
| 20260506222801 | 52 | 242 | 0.0 | 6.1 | 0.01 | 0.17 | 0.00 | 92 | 1008.7 |
| 20260506222659 | 52 | 250 | 0.0 | 6.1 | 0.01 | 0.17 | 0.00 | 92 | 1008.7 |
| 20260506222558 | 52 | 250 | 2.6 | 6.1 | 0.01 | 0.17 | 0.00 | 92 | 1008.7 |
| 20260506222457 | 52 | 250 | 3.5 | 6.1 | 0.01 | 0.17 | 0.00 | 92 | 1008.6 |
| 20260506222356 | 52 | 230 | 1.7 | 6.1 | 0.01 | 0.17 | 0.00 | 92 | 1008.6 |
| 20260506222254 | 52 | 249 | 2.6 | 6.1 | 0.01 | 0.17 | 0.00 | 92 | 1008.6 |
| 20260506222150 | 52 | 263 | 3.5 | 6.1 | 0.01 | 0.17 | 0.00 | 92 | 1008.6 |
| 20260506222050 | 52 | 288 | 3.5 | 6.1 | 0.01 | 0.17 | 0.00 | 92 | 1008.6 |
| 20260506221946 | 52 | 247 | 3.5 | 6.1 | 0.01 | 0.17 | 0.00 | 92 | 1008.6 |
| 20260506221845 | 52 | 254 | 3.5 | 4.3 | 0.01 | 0.17 | 0.00 | 92 | 1008.6 |
| 20260506221748 | 52 | 264 | 2.6 | 4.3 | 0.01 | 0.17 | 0.00 | 92 | 1008.6 |
| 20260506221642 | 52 | 260 | 1.7 | 4.3 | 0.01 | 0.17 | 0.00 | 92 | 1008.6 |
| 20260506221545 | 52 | 280 | 2.6 | 4.3 | 0.01 | 0.17 | 0.00 | 92 | 1008.7 |
| 20260506221443 | 52 | 264 | 2.6 | 4.3 | 0.02 | 0.17 | 0.00 | 92 | 1008.6 |
| 20260506221342 | 52 | 250 | 1.7 | 4.3 | 0.02 | 0.17 | 0.00 | 92 | 1008.7 |
| 20260506221240 | 52 | 260 | 1.7 | 4.3 | 0.02 | 0.17 | 0.00 | 92 | 1008.7 |
| 20260506221141 | 52 | 279 | 1.7 | 4.3 | 0.02 | 0.17 | 0.00 | 92 | 1008.6 |
| 20260506221039 | 52 | 211 | 1.7 | 4.3 | 0.02 | 0.17 | 0.00 | 92 | 1008.7 |
| 20260506220938 | 52 | 237 | 1.7 | 4.3 | 0.02 | 0.17 | 0.00 | 92 | 1008.7 |
| 20260506220837 | 52 | 236 | 2.6 | 4.3 | 0.02 | 0.17 | 0.00 | 92 | 1008.6 |
| 20260506220736 | 52 | 240 | 1.7 | 4.3 | 0.02 | 0.17 | 0.00 | 92 | 1008.7 |
| 20260506220639 | 52 | 220 | 1.7 | 3.5 | 0.03 | 0.17 | 0.00 | 92 | 1008.7 |
| 20260506220533 | 52 | 199 | 0.9 | 2.6 | 0.03 | 0.17 | 0.00 | 92 | 1008.7 |
| 20260506220431 | 52 | 226 | 0.9 | 3.5 | 0.04 | 0.17 | 0.00 | 92 | 1008.6 |
| 20260506220320 | 52 | 226 | 0.0 | 3.5 | 0.04 | 0.17 | 0.00 | 92 | 1008.6 |
| 20260506220219 | 52 | 235 | 0.9 | 3.5 | 0.04 | 0.17 | 0.00 | 92 | 1008.6 |
| 20260506220118 | 52 | 235 | 0.9 | 3.5 | 0.05 | 0.17 | 0.00 | 92 | 1008.7 |
| 20260506220015 | 52 | 234 | 0.0 | 3.5 | 0.06 | 0.17 | 0.00 | 92 | 1008.6 |
| 20260506215915 | 52 | 234 | 0.9 | 3.5 | 0.06 | 0.17 | 0.17 | 92 | 1008.6 |
| 20260506215813 | 52 | 254 | 0.9 | 3.5 | 0.06 | 0.17 | 0.17 | 92 | 1008.6 |
| 20260506215711 | 52 | 244 | 0.9 | 3.5 | 0.06 | 0.17 | 0.17 | 92 | 1008.6 |
| 20260506215609 | 52 | 244 | 0.9 | 3.5 | 0.07 | 0.17 | 0.17 | 92 | 1008.6 |
| 20260506215508 | 52 | 250 | 0.0 | 3.5 | 0.07 | 0.17 | 0.17 | 92 | 1008.5 |
| 20260506215408 | 52 | 241 | 0.9 | 3.5 | 0.07 | 0.17 | 0.17 | 92 | 1008.5 |
| 20260506215312 | 52 | 243 | 1.7 | 3.5 | 0.08 | 0.17 | 0.17 | 92 | 1008.6 |
| 20260506215239 | 52 | 243 | 1.7 | 3.5 | 0.09 | 0.17 | 0.17 | 92 | 1008.6 |
| 20260506215102 | 52 | 242 | 1.7 | 3.5 | 0.09 | 0.17 | 0.17 | 92 | 1008.6 |
| 20260506215004 | 52 | 238 | 1.7 | 4.3 | 0.09 | 0.17 | 0.17 | 92 | 1008.6 |
| 20260506214902 | 52 | 279 | 1.7 | 4.3 | 0.09 | 0.17 | 0.17 | 92 | 1008.7 |
| 20260506214801 | 52 | 241 | 1.7 | 4.3 | 0.10 | 0.17 | 0.17 | 92 | 1008.6 |
| 20260506214659 | 52 | 231 | 1.7 | 4.3 | 0.10 | 0.17 | 0.17 | 92 | 1008.6 |
| 20260506214559 | 52 | 248 | 1.7 | 4.3 | 0.11 | 0.17 | 0.17 | 92 | 1008.6 |
| 20260506214456 | 52 | 220 | 1.7 | 4.3 | 0.11 | 0.17 | 0.17 | 92 | 1008.7 |
| 20260506214355 | 52 | 255 | 1.7 | 4.3 | 0.11 | 0.17 | 0.17 | 92 | 1008.7 |
| 20260506214253 | 52 | 245 | 1.7 | 4.3 | 0.12 | 0.17 | 0.17 | 92 | 1008.6 |
| 20260506214150 | 52 | 243 | 2.6 | 4.3 | 0.12 | 0.17 | 0.17 | 92 | 1008.7 |
| 20260506214051 | 52 | 237 | 0.9 | 4.3 | 0.12 | 0.17 | 0.17 | 92 | 1008.7 |
| 20260506213950 | 52 | 260 | 0.9 | 4.3 | 0.12 | 0.17 | 0.17 | 92 | 1008.7 |
| 20260506213848 | 52 | 222 | 1.7 | 4.3 | 0.12 | 0.17 | 0.17 | 92 | 1008.7 |
| 20260506213747 | 52 | 222 | 1.7 | 4.3 | 0.13 | 0.17 | 0.17 | 92 | 1008.7 |
| 20260506213646 | 52 | 255 | 0.9 | 4.3 | 0.12 | 0.17 | 0.17 | 92 | 1008.7 |
| 20260506213545 | 52 | 252 | 1.7 | 5.2 | 0.12 | 0.17 | 0.17 | 92 | 1008.7 |
| 20260506213444 | 52 | 252 | 2.6 | 5.2 | 0.12 | 0.17 | 0.17 | 92 | 1008.8 |
| 20260506213342 | 52 | 240 | 3.5 | 5.2 | 0.12 | 0.17 | 0.17 | 92 | 1008.8 |
| 20260506213240 | 52 | 258 | 3.5 | 5.2 | 0.12 | 0.17 | 0.17 | 92 | 1008.8 |
| 20260506213139 | 52 | 264 | 3.5 | 5.2 | 0.12 | 0.17 | 0.17 | 92 | 1008.8 |
| 20260506213038 | 52 | 265 | 1.7 | 5.2 | 0.12 | 0.17 | 0.17 | 92 | 1008.8 |
| 20260506212937 | 52 | 258 | 1.7 | 5.2 | 0.12 | 0.17 | 0.17 | 92 | 1008.9 |
| 20260506212835 | 52 | 255 | 1.7 | 5.2 | 0.12 | 0.17 | 0.17 | 92 | 1008.8 |
| 20260506212758 | 52 | 265 | 1.7 | 5.2 | 0.13 | 0.17 | 0.17 | 92 | 1008.8 |
| 20260506212724 | 52 | 216 | 3.5 | 5.2 | 0.13 | 0.17 | 0.17 | 92 | 1008.8 |
| 20260506212532 | 52 | 235 | 3.5 | 5.2 | 0.13 | 0.17 | 0.17 | 92 | 1008.8 |
| 20260506212431 | 52 | 264 | 1.7 | 5.2 | 0.13 | 0.17 | 0.17 | 92 | 1008.8 |
| 20260506212330 | 52 | 257 | 1.7 | 5.2 | 0.13 | 0.17 | 0.17 | 92 | 1008.8 |
| 20260506212223 | 52 | 216 | 2.6 | 6.1 | 0.13 | 0.17 | 0.17 | 92 | 1008.8 |
| 20260506212020 | 53 | 237 | 1.7 | 6.1 | 0.13 | 0.17 | 0.17 | 92 | 1008.8 |
| 20260506211919 | 53 | 222 | 1.7 | 6.1 | 0.13 | 0.17 | 0.17 | 92 | 1008.9 |
| 20260506211818 | 53 | 222 | 1.7 | 6.1 | 0.13 | 0.17 | 0.17 | 92 | 1008.8 |
| 20260506211717 | 53 | 221 | 1.7 | 6.1 | 0.13 | 0.17 | 0.17 | 92 | 1008.8 |
| 20260506211616 | 53 | 180 | 2.6 | 6.1 | 0.13 | 0.17 | 0.17 | 92 | 1008.9 |
| 20260506211514 | 53 | 227 | 3.5 | 6.1 | 0.13 | 0.16 | 0.17 | 92 | 1008.9 |
| 20260506211413 | 53 | 228 | 3.5 | 6.1 | 0.13 | 0.16 | 0.16 | 92 | 1008.9 |
| 20260506211311 | 53 | 216 | 3.5 | 6.1 | 0.13 | 0.15 | 0.16 | 91 | 1008.8 |
| 20260506211210 | 53 | 233 | 2.6 | 5.2 | 0.13 | 0.15 | 0.16 | 91 | 1008.8 |
| 20260506211011 | 53 | 257 | 1.7 | 6.1 | 0.13 | 0.15 | 0.15 | 91 | 1008.9 |
| 20260506210906 | 53 | 226 | 2.6 | 7.0 | 0.13 | 0.15 | 0.15 | 91 | 1008.9 |
| 20260506210805 | 53 | 249 | 3.5 | 7.0 | 0.13 | 0.15 | 0.15 | 91 | 1008.8 |
| 20260506210702 | 53 | 241 | 3.5 | 7.0 | 0.12 | 0.14 | 0.15 | 91 | 1008.8 |
| 20260506210600 | 53 | 222 | 2.6 | 7.0 | 0.12 | 0.14 | 0.14 | 91 | 1008.8 |
| 20260506210459 | 53 | 268 | 2.6 | 7.0 | 0.12 | 0.14 | 0.14 | 91 | 1008.7 |
| 20260506210358 | 53 | 206 | 3.5 | 8.7 | 0.11 | 0.13 | 0.13 | 91 | 1008.8 |
| 20260506210256 | 53 | 216 | 4.3 | 8.7 | 0.11 | 0.13 | 0.13 | 91 | 1008.9 |
| 20260506210155 | 53 | 253 | 3.5 | 8.7 | 0.11 | 0.13 | 0.13 | 91 | 1008.8 |
| 20260506210100 | 53 | 236 | 2.6 | 8.7 | 0.10 | 0.13 | 0.13 | 91 | 1008.8 |
| 20260506205953 | 53 | 255 | 2.6 | 8.7 | 0.09 | 0.12 | 0.12 | 91 | 1008.9 |
| 20260506205853 | 53 | 232 | 2.6 | 8.7 | 0.09 | 0.12 | 0.12 | 91 | 1008.8 |
| 20260506205751 | 53 | 242 | 2.6 | 8.7 | 0.09 | 0.11 | 0.11 | 91 | 1008.8 |
| 20260506205649 | 53 | 224 | 3.5 | 8.7 | 0.09 | 0.11 | 0.11 | 91 | 1008.8 |
| 20260506205549 | 53 | 241 | 3.5 | 8.7 | 0.08 | 0.10 | 0.11 | 91 | 1008.8 |
| 20260506205447 | 53 | 229 | 2.6 | 8.7 | 0.08 | 0.10 | 0.10 | 91 | 1008.8 |
| 20260506205346 | 53 | 216 | 2.6 | 7.8 | 0.07 | 0.09 | 0.10 | 91 | 1008.8 |
| 20260506205246 | 53 | 206 | 2.6 | 7.8 | 0.07 | 0.09 | 0.09 | 91 | 1008.8 |
| 20260506205145 | 53 | 236 | 3.5 | 9.6 | 0.06 | 0.09 | 0.09 | 91 | 1008.8 |
| 20260506205043 | 53 | 216 | 3.5 | 9.6 | 0.06 | 0.09 | 0.09 | 91 | 1008.8 |
| 20260506204936 | 53 | 256 | 4.3 | 9.6 | 0.06 | 0.08 | 0.09 | 91 | 1008.8 |
| 20260506204835 | 53 | 223 | 3.5 | 9.6 | 0.05 | 0.07 | 0.08 | 91 | 1008.9 |
| 20260506204734 | 53 | 257 | 4.3 | 9.6 | 0.05 | 0.07 | 0.07 | 91 | 1008.8 |
| 20260506204633 | 53 | 258 | 3.5 | 9.6 | 0.05 | 0.07 | 0.07 | 90 | 1008.8 |
| 20260506204531 | 53 | 226 | 3.5 | 9.6 | 0.04 | 0.06 | 0.07 | 90 | 1008.8 |
| 20260506204430 | 53 | 244 | 4.3 | 9.6 | 0.04 | 0.06 | 0.06 | 90 | 1008.7 |
| 20260506204331 | 53 | 271 | 3.5 | 9.6 | 0.03 | 0.06 | 0.06 | 90 | 1008.7 |
| 20260506204228 | 53 | 187 | 2.6 | 8.7 | 0.03 | 0.06 | 0.06 | 90 | 1008.6 |
| 20260506204127 | 53 | 203 | 3.5 | 8.7 | 0.03 | 0.06 | 0.06 | 90 | 1008.7 |
| 20260506204025 | 53 | 158 | 4.3 | 8.7 | 0.03 | 0.06 | 0.06 | 90 | 1008.7 |
| 20260506203924 | 53 | 211 | 5.2 | 8.7 | 0.03 | 0.06 | 0.06 | 90 | 1008.6 |
| 20260506203823 | 53 | 196 | 4.3 | 8.7 | 0.03 | 0.06 | 0.06 | 90 | 1008.7 |
| 20260506203721 | 53 | 197 | 3.5 | 8.7 | 0.02 | 0.05 | 0.06 | 90 | 1008.8 |
| 20260506203620 | 53 | 187 | 1.7 | 7.0 | 0.02 | 0.05 | 0.05 | 90 | 1008.6 |
| 20260506203518 | 53 | 216 | 1.7 | 3.5 | 0.02 | 0.05 | 0.05 | 90 | 1008.7 |
| 20260506203418 | 53 | 206 | 1.7 | 3.5 | 0.02 | 0.05 | 0.05 | 90 | 1008.7 |
| 20260506203317 | 53 | 211 | 0.9 | 3.5 | 0.02 | 0.05 | 0.05 | 90 | 1008.6 |
| 20260506203217 | 53 | 220 | 1.7 | 3.5 | 0.02 | 0.05 | 0.05 | 90 | 1008.6 |
| 20260506203114 | 53 | 220 | 1.7 | 3.5 | 0.02 | 0.05 | 0.05 | 90 | 1008.6 |
| 20260506203014 | 53 | 228 | 0.9 | 3.5 | 0.02 | 0.05 | 0.05 | 90 | 1008.6 |
| 20260506202911 | 53 | 241 | 0.9 | 1.7 | 0.02 | 0.05 | 0.05 | 90 | 1008.6 |
| 20260506202809 | 53 | 241 | 0.9 | 1.7 | 0.02 | 0.04 | 0.04 | 90 | 1008.7 |
| 20260506202708 | 53 | 241 | 0.0 | 1.7 | 0.02 | 0.04 | 0.04 | 90 | 1008.6 |
| 20260506202608 | 53 | 242 | 0.0 | 1.7 | 0.02 | 0.04 | 0.04 | 90 | 1008.6 |
| 20260506202508 | 53 | 242 | 0.0 | 1.7 | 0.02 | 0.04 | 0.04 | 90 | 1008.6 |
| 20260506202402 | 53 | 242 | 0.0 | 1.7 | 0.02 | 0.04 | 0.04 | 90 | 1008.7 |
| 20260506202306 | 53 | 242 | 0.0 | 2.6 | 0.02 | 0.04 | 0.04 | 90 | 1008.6 |
| 20260506202158 | 53 | 242 | 0.9 | 2.6 | 0.02 | 0.04 | 0.04 | 90 | 1008.6 |
| 20260506201956 | 53 | 242 | 0.0 | 3.5 | 0.02 | 0.04 | 0.04 | 89 | 1008.6 |
| 20260506201854 | 53 | 242 | 0.9 | 3.5 | 0.01 | 0.03 | 0.03 | 89 | 1008.6 |
| 20260506201751 | 53 | 241 | 0.9 | 3.5 | 0.01 | 0.03 | 0.03 | 89 | 1008.6 |
| 20260506201650 | 53 | 241 | 0.0 | 3.5 | 0.01 | 0.03 | 0.03 | 89 | 1008.5 |
| 20260506201546 | 53 | 237 | 0.9 | 3.5 | 0.01 | 0.03 | 0.03 | 89 | 1008.5 |
| 20260506201445 | 53 | 237 | 1.7 | 3.5 | 0.01 | 0.03 | 0.03 | 89 | 1008.5 |
| 20260506201343 | 53 | 237 | 1.7 | 3.5 | 0.00 | 0.02 | 0.03 | 89 | 1008.6 |
| 20260506201247 | 53 | 260 | 0.9 | 3.5 | 0.00 | 0.02 | 0.02 | 89 | 1008.6 |
| 20260506201146 | 53 | 228 | 0.0 | 3.5 | 0.00 | 0.02 | 0.02 | 89 | 1008.5 |
| 20260506201045 | 53 | 221 | 0.9 | 4.3 | 0.00 | 0.02 | 0.02 | 89 | 1008.5 |
| 20260506200944 | 53 | 221 | 0.9 | 4.3 | 0.00 | 0.02 | 0.02 | 89 | 1008.6 |
| 20260506200842 | 53 | 221 | 0.9 | 4.3 | 0.00 | 0.02 | 0.02 | 89 | 1008.6 |
| 20260506200740 | 53 | 216 | 1.7 | 4.3 | 0.00 | 0.02 | 0.02 | 89 | 1008.5 |
| 20260506200639 | 53 | 216 | 1.7 | 4.3 | 0.00 | 0.02 | 0.02 | 89 | 1008.5 |
| 20260506200538 | 53 | 225 | 0.9 | 4.3 | 0.00 | 0.02 | 0.02 | 89 | 1008.6 |
| 20260506200435 | 53 | 222 | 0.9 | 4.3 | 0.00 | 0.02 | 0.02 | 89 | 1008.5 |
| 20260506200335 | 53 | 206 | 1.7 | 4.3 | 0.00 | 0.02 | 0.02 | 89 | 1008.5 |
| 20260506200235 | 53 | 206 | 2.6 | 4.3 | 0.00 | 0.02 | 0.02 | 89 | 1008.5 |
| 20260506200132 | 53 | 206 | 1.7 | 4.3 | 0.00 | 0.02 | 0.02 | 89 | 1008.5 |
| 20260506200030 | 53 | 216 | 1.7 | 4.3 | 0.00 | 0.02 | 0.02 | 89 | 1008.4 |
| 20260506195931 | 53 | 216 | 1.7 | 4.3 | 0.00 | 0.02 | 0.02 | 89 | 1008.4 |
| 20260506195824 | 53 | 241 | 1.7 | 4.3 | 0.00 | 0.02 | 0.02 | 89 | 1008.4 |
| 20260506195735 | 53 | 216 | 1.7 | 4.3 | 0.00 | 0.02 | 0.02 | 89 | 1008.4 |
| 20260506195707 | 53 | 216 | 1.7 | 4.3 | 0.00 | 0.02 | 0.02 | 89 | 1008.4 |
| 20260506195519 | 53 | 227 | 0.9 | 6.1 | 0.00 | 0.02 | 0.02 | 89 | 1008.4 |
| 20260506195419 | 53 | 228 | 0.9 | 6.1 | 0.00 | 0.02 | 0.02 | 89 | 1008.2 |
| 20260506195315 | 53 | 226 | 1.7 | 6.1 | 0.00 | 0.02 | 0.02 | 89 | 1008.3 |
| 20260506195211 | 53 | 244 | 2.6 | 6.1 | 0.00 | 0.02 | 0.02 | 89 | 1008.2 |
| 20260506195110 | 53 | 222 | 2.6 | 6.1 | 0.00 | 0.02 | 0.02 | 89 | 1008.3 |
| 20260506195015 | 53 | 243 | 2.6 | 6.1 | 0.00 | 0.02 | 0.02 | 89 | 1008.3 |
| 20260506194911 | 53 | 230 | 1.7 | 6.1 | 0.00 | 0.02 | 0.02 | 89 | 1008.3 |
| 20260506194810 | 53 | 216 | 1.7 | 6.1 | 0.00 | 0.02 | 0.02 | 89 | 1008.2 |
| 20260506194709 | 53 | 222 | 2.6 | 6.1 | 0.00 | 0.02 | 0.02 | 89 | 1008.2 |
| 20260506194607 | 53 | 225 | 2.6 | 6.1 | 0.00 | 0.02 | 0.02 | 89 | 1008.2 |
| 20260506194506 | 53 | 216 | 2.6 | 4.3 | 0.00 | 0.02 | 0.02 | 89 | 1008.2 |
| 20260506194405 | 53 | 203 | 2.6 | 4.3 | 0.00 | 0.02 | 0.02 | 89 | 1008.2 |
| 20260506194304 | 53 | 211 | 2.6 | 4.3 | 0.00 | 0.02 | 0.02 | 89 | 1008.2 |
| 20260506194203 | 53 | 222 | 2.6 | 4.3 | 0.00 | 0.02 | 0.02 | 89 | 1008.1 |
| 20260506194101 | 53 | 227 | 0.9 | 4.3 | 0.00 | 0.02 | 0.02 | 89 | 1008.0 |
| 20260506194000 | 53 | 216 | 0.0 | 3.5 | 0.00 | 0.02 | 0.02 | 89 | 1008.1 |
| 20260506193859 | 53 | 285 | 0.0 | 0.0 | 0.00 | 0.02 | 0.02 | 89 | 1008.1 |
| 20260506193757 | 53 | 285 | 0.0 | 0.9 | 0.00 | 0.02 | 0.02 | 89 | 1008.1 |
| 20260506193656 | 53 | 285 | 0.0 | 0.9 | 0.00 | 0.02 | 0.02 | 89 | 1008.0 |
| 20260506193555 | 53 | 285 | 0.0 | 0.9 | 0.00 | 0.02 | 0.02 | 89 | 1008.0 |
| 20260506193447 | 53 | 285 | 0.0 | 1.7 | 0.00 | 0.02 | 0.02 | 89 | 1008.1 |
| 20260506193346 | 53 | 285 | 0.0 | 1.7 | 0.00 | 0.02 | 0.02 | 89 | 1008.1 |
| 20260506193245 | 53 | 285 | 0.0 | 1.7 | 0.00 | 0.02 | 0.02 | 89 | 1008.0 |
| 20260506193145 | 53 | 285 | 0.0 | 2.6 | 0.00 | 0.02 | 0.02 | 89 | 1008.0 |
| 20260506192944 | 53 | 285 | 0.9 | 3.5 | 0.00 | 0.02 | 0.02 | 89 | 1008.0 |
| 20260506192841 | 53 | 285 | 0.9 | 3.5 | 0.00 | 0.02 | 0.02 | 89 | 1008.0 |
| 20260506192739 | 53 | 285 | 0.0 | 3.5 | 0.00 | 0.02 | 0.02 | 89 | 1007.9 |
| 20260506192639 | 53 | 285 | 0.0 | 3.5 | 0.00 | 0.02 | 0.02 | 89 | 1007.9 |
| 20260506192441 | 53 | 285 | 0.9 | 3.5 | 0.00 | 0.02 | 0.02 | 90 | 1007.9 |
| 20260506192335 | 53 | 285 | 1.7 | 3.5 | 0.00 | 0.02 | 0.02 | 89 | 1007.9 |
| 20260506192232 | 53 | 285 | 1.7 | 3.5 | 0.00 | 0.02 | 0.02 | 90 | 1007.9 |
| 20260506192131 | 53 | 285 | 2.6 | 3.5 | 0.00 | 0.02 | 0.02 | 90 | 1007.8 |
| 20260506192032 | 53 | 287 | 0.9 | 3.5 | 0.00 | 0.02 | 0.02 | 90 | 1007.8 |
| 20260506191931 | 53 | 308 | 0.0 | 2.6 | 0.00 | 0.02 | 0.02 | 89 | 1007.8 |
| 20260506191829 | 53 | 318 | 0.0 | 1.7 | 0.00 | 0.02 | 0.02 | 89 | 1007.8 |
| 20260506191727 | 53 | 318 | 0.9 | 1.7 | 0.00 | 0.02 | 0.02 | 89 | 1007.8 |
| 20260506191628 | 53 | 318 | 0.9 | 1.7 | 0.00 | 0.02 | 0.02 | 89 | 1007.7 |
| 20260506191526 | 53 | 318 | 0.9 | 1.7 | 0.00 | 0.02 | 0.02 | 90 | 1007.7 |
| 20260506191420 | 53 | 318 | 0.9 | 1.7 | 0.00 | 0.02 | 0.02 | 90 | 1007.7 |
| 20260506191318 | 53 | 318 | 0.9 | 1.7 | 0.00 | 0.02 | 0.02 | 90 | 1007.7 |
| 20260506191212 | 53 | 318 | 0.9 | 1.7 | 0.00 | 0.02 | 0.02 | 90 | 1007.7 |
| 20260506191120 | 53 | 318 | 0.9 | 1.7 | 0.00 | 0.02 | 0.02 | 90 | 1007.7 |
| 20260506191012 | 53 | 318 | 0.0 | 1.7 | 0.00 | 0.02 | 0.02 | 89 | 1007.7 |
| 20260506190908 | 53 | 318 | 0.0 | 1.7 | 0.00 | 0.02 | 0.02 | 89 | 1007.7 |
| 20260506190807 | 53 | 318 | 0.0 | 1.7 | 0.00 | 0.02 | 0.02 | 89 | 1007.7 |
| 20260506190706 | 53 | 318 | 0.0 | 1.7 | 0.00 | 0.02 | 0.02 | 89 | 1007.7 |
| 20260506190604 | 53 | 318 | 0.0 | 3.5 | 0.00 | 0.02 | 0.02 | 89 | 1007.6 |
| 20260506190508 | 53 | 318 | 0.0 | 3.5 | 0.00 | 0.02 | 0.02 | 89 | 1007.7 |
| 20260506190408 | 53 | 318 | 0.0 | 3.5 | 0.00 | 0.02 | 0.02 | 90 | 1007.6 |
| 20260506190305 | 53 | 318 | 0.0 | 3.5 | 0.00 | 0.02 | 0.02 | 89 | 1007.6 |
| 20260506190203 | 53 | 318 | 0.0 | 3.5 | 0.00 | 0.02 | 0.02 | 89 | 1007.7 |
| 20260506190107 | 53 | 318 | 0.0 | 3.5 | 0.00 | 0.02 | 0.02 | 89 | 1007.7 |
| 20260506190000 | 53 | 318 | 0.9 | 3.5 | 0.00 | 0.02 | 0.02 | 89 | 1007.7 |
| 20260506185858 | 53 | 318 | 1.7 | 3.5 | 0.00 | 0.02 | 0.02 | 88 | 1007.7 |
| 20260506185754 | 53 | 318 | 1.7 | 3.5 | 0.00 | 0.02 | 0.02 | 89 | 1007.7 |
| 20260506185653 | 53 | 318 | 0.9 | 3.5 | 0.00 | 0.02 | 0.02 | 88 | 1007.6 |
| 20260506185549 | 53 | 295 | 0.0 | 1.7 | 0.00 | 0.02 | 0.02 | 88 | 1007.6 |
| 20260506185449 | 53 | 228 | 0.0 | 0.0 | 0.00 | 0.02 | 0.02 | 88 | 1007.6 |
| 20260506185343 | 54 | 228 | 0.0 | 0.0 | 0.00 | 0.02 | 0.02 | 88 | 1007.6 |
| 20260506185235 | 54 | 228 | 0.0 | 0.0 | 0.00 | 0.02 | 0.02 | 88 | 1007.6 |
| 20260506185134 | 54 | 228 | 0.0 | 0.9 | 0.00 | 0.02 | 0.02 | 88 | 1007.7 |
| 20260506184933 | 54 | 228 | 0.0 | 1.7 | 0.01 | 0.02 | 0.02 | 88 | 1007.6 |
| 20260506184832 | 54 | 228 | 0.0 | 2.6 | 0.01 | 0.02 | 0.02 | 88 | 1007.6 |
| 20260506184730 | 54 | 228 | 0.0 | 4.3 | 0.01 | 0.02 | 0.02 | 89 | 1007.6 |
| 20260506184629 | 54 | 228 | 0.0 | 4.3 | 0.01 | 0.02 | 0.02 | 89 | 1007.6 |
| 20260506184428 | 54 | 228 | 0.0 | 4.3 | 0.01 | 0.02 | 0.02 | 88 | 1007.5 |
| 20260506184324 | 54 | 228 | 0.0 | 4.3 | 0.01 | 0.02 | 0.02 | 89 | 1007.4 |
| 20260506184224 | 54 | 228 | 0.0 | 4.3 | 0.01 | 0.02 | 0.02 | 89 | 1007.4 |
| 20260506184121 | 54 | 228 | 0.9 | 4.3 | 0.01 | 0.02 | 0.02 | 89 | 1007.3 |
| 20260506184022 | 54 | 295 | 1.7 | 4.3 | 0.01 | 0.02 | 0.02 | 89 | 1007.3 |
| 20260506183923 | 54 | 295 | 2.6 | 4.3 | 0.01 | 0.02 | 0.02 | 89 | 1007.2 |
| 20260506183819 | 54 | 295 | 2.6 | 4.3 | 0.01 | 0.02 | 0.02 | 89 | 1007.2 |
| 20260506183728 | 54 | 290 | 1.7 | 4.3 | 0.01 | 0.02 | 0.02 | 89 | 1007.3 |
| 20260506183655 | 54 | 297 | 1.7 | 3.5 | 0.01 | 0.02 | 0.02 | 89 | 1007.3 |
| 20260506183513 | 54 | 303 | 0.9 | 1.7 | 0.01 | 0.02 | 0.02 | 89 | 1007.2 |
| 20260506183412 | 54 | 303 | 0.0 | 1.7 | 0.01 | 0.02 | 0.02 | 89 | 1007.2 |
| 20260506183311 | 54 | 303 | 0.0 | 1.7 | 0.01 | 0.02 | 0.02 | 89 | 1007.2 |
| 20260506183211 | 54 | 303 | 0.0 | 1.7 | 0.01 | 0.02 | 0.02 | 90 | 1007.3 |
| 20260506183110 | 54 | 303 | 0.9 | 1.7 | 0.01 | 0.02 | 0.02 | 90 | 1007.3 |
| 20260506183009 | 54 | 303 | 0.9 | 1.7 | 0.01 | 0.02 | 0.02 | 90 | 1007.2 |
| 20260506182909 | 54 | 303 | 0.9 | 1.7 | 0.01 | 0.03 | 0.02 | 90 | 1007.3 |
| 20260506182807 | 54 | 303 | 0.9 | 1.7 | 0.02 | 0.03 | 0.02 | 90 | 1007.2 |
| 20260506182705 | 54 | 314 | 1.7 | 1.7 | 0.02 | 0.03 | 0.02 | 90 | 1007.2 |
| 20260506182604 | 54 | 314 | 1.7 | 1.7 | 0.02 | 0.03 | 0.02 | 90 | 1007.2 |
| 20260506182502 | 54 | 314 | 0.9 | 1.7 | 0.02 | 0.03 | 0.02 | 90 | 1007.2 |
| 20260506182400 | 54 | 318 | 0.9 | 2.6 | 0.02 | 0.03 | 0.02 | 90 | 1007.1 |
| 20260506182258 | 54 | 318 | 0.0 | 3.5 | 0.02 | 0.03 | 0.02 | 90 | 1007.1 |
| 20260506182154 | 54 | 318 | 0.0 | 3.5 | 0.02 | 0.03 | 0.02 | 90 | 1007.1 |
| 20260506182055 | 54 | 318 | 0.9 | 3.5 | 0.02 | 0.03 | 0.02 | 90 | 1007.0 |
| 20260506181950 | 54 | 318 | 1.7 | 3.5 | 0.02 | 0.03 | 0.02 | 90 | 1007.1 |
| 20260506181849 | 54 | 318 | 1.7 | 3.5 | 0.02 | 0.03 | 0.02 | 90 | 1007.0 |
| 20260506181748 | 54 | 320 | 0.9 | 3.5 | 0.02 | 0.04 | 0.02 | 90 | 1007.0 |
| 20260506181647 | 55 | 325 | 0.9 | 3.5 | 0.02 | 0.04 | 0.02 | 90 | 1006.9 |
| 20260506181546 | 55 | 325 | 1.7 | 3.5 | 0.02 | 0.04 | 0.02 | 90 | 1006.9 |
| 20260506181445 | 55 | 325 | 1.7 | 3.5 | 0.02 | 0.04 | 0.02 | 89 | 1006.9 |
| 20260506181343 | 55 | 325 | 0.9 | 3.5 | 0.02 | 0.05 | 0.02 | 89 | 1007.0 |
| 20260506181245 | 55 | 320 | 0.0 | 2.6 | 0.02 | 0.05 | 0.02 | 89 | 1006.9 |
| 20260506181202 | 55 | 318 | 0.0 | 2.6 | 0.02 | 0.05 | 0.02 | 89 | 1006.9 |
| 20260506181129 | 55 | 318 | 0.0 | 2.6 | 0.02 | 0.06 | 0.02 | 90 | 1006.9 |
| 20260506180933 | 55 | 318 | 0.9 | 2.6 | 0.02 | 0.06 | 0.02 | 89 | 1007.0 |
| 20260506180830 | 55 | 318 | 1.7 | 2.6 | 0.02 | 0.06 | 0.02 | 89 | 1007.0 |
| 20260506180730 | 55 | 318 | 0.9 | 2.6 | 0.02 | 0.06 | 0.02 | 89 | 1007.1 |
| 20260506180629 | 55 | 318 | 0.9 | 2.6 | 0.02 | 0.06 | 0.02 | 89 | 1007.1 |
| 20260506180529 | 55 | 318 | 0.9 | 2.6 | 0.02 | 0.06 | 0.02 | 89 | 1007.1 |
| 20260506180427 | 55 | 318 | 0.9 | 2.6 | 0.02 | 0.06 | 0.02 | 89 | 1007.0 |
| 20260506180325 | 55 | 318 | 0.0 | 1.7 | 0.02 | 0.07 | 0.02 | 89 | 1007.0 |
| 20260506180225 | 55 | 318 | 0.0 | 2.6 | 0.02 | 0.08 | 0.02 | 89 | 1007.0 |
| 20260506180118 | 55 | 318 | 0.0 | 2.6 | 0.02 | 0.08 | 0.02 | 89 | 1007.0 |
| 20260506175911 | 56 | 318 | 0.0 | 2.6 | 0.02 | 0.09 | 0.02 | 89 | 1007.1 |
| 20260506175808 | 56 | 318 | 0.0 | 2.6 | 0.02 | 0.10 | 0.02 | 89 | 1007.1 |
| 20260506175708 | 56 | 318 | 0.0 | 2.6 | 0.02 | 0.11 | 0.02 | 89 | 1007.2 |
| 20260506175642 | 56 | 318 | 0.9 | 2.6 | 0.02 | 0.12 | 0.02 | 89 | 1007.2 |
| 20260506175506 | 56 | 318 | 1.7 | 2.6 | 0.02 | 0.13 | 0.02 | 89 | 1007.2 |
| 20260506175355 | 56 | 318 | 0.9 | 2.6 | 0.02 | 0.13 | 0.02 | 89 | 1007.3 |
| 20260506175252 | 56 | 318 | 0.0 | 2.6 | 0.02 | 0.13 | 0.02 | 89 | 1007.3 |
| 20260506175152 | 56 | 332 | 0.0 | 1.7 | 0.02 | 0.13 | 0.02 | 89 | 1007.2 |
| 20260506175050 | 56 | 332 | 0.0 | 1.7 | 0.01 | 0.14 | 0.02 | 89 | 1007.2 |
| 20260506174950 | 56 | 332 | 0.0 | 1.7 | 0.01 | 0.15 | 0.02 | 88 | 1007.1 |
| 20260506174840 | 56 | 332 | 0.0 | 1.7 | 0.01 | 0.17 | 0.02 | 88 | 1007.1 |
| 20260506174741 | 56 | 332 | 0.0 | 1.7 | 0.01 | 0.18 | 0.02 | 88 | 1007.0 |
| 20260506174640 | 56 | 332 | 0.0 | 1.7 | 0.01 | 0.20 | 0.02 | 88 | 1007.1 |
| 20260506174539 | 56 | 330 | 0.9 | 1.7 | 0.01 | 0.20 | 0.02 | 87 | 1007.0 |
| 20260506174437 | 56 | 330 | 0.0 | 1.7 | 0.01 | 0.23 | 0.02 | 87 | 1007.1 |
| 20260506174335 | 56 | 299 | 0.0 | 1.7 | 0.01 | 0.25 | 0.02 | 87 | 1007.1 |
| 20260506174233 | 57 | 268 | 0.0 | 1.7 | 0.01 | 0.25 | 0.02 | 87 | 1007.1 |
| 20260506174148 | 57 | 268 | 0.0 | 1.7 | 0.01 | 0.28 | 0.02 | 87 | 1007.1 |
| 20260506174123 | 57 | 268 | 0.9 | 1.7 | 0.01 | 0.30 | 0.02 | 86 | 1007.1 |
| 20260506173931 | 57 | 268 | 0.9 | 1.7 | 0.01 | 0.32 | 0.02 | 86 | 1007.2 |
| 20260506173829 | 57 | 264 | 0.0 | 1.7 | 0.01 | 0.33 | 0.02 | 85 | 1007.2 |
| 20260506173727 | 57 | 262 | 0.9 | 1.7 | 0.01 | 0.34 | 0.02 | 85 | 1007.2 |
| 20260506173628 | 57 | 262 | 0.0 | 1.7 | 0.01 | 0.34 | 0.02 | 84 | 1007.2 |
| 20260506173522 | 57 | 262 | 0.0 | 1.7 | 0.01 | 0.35 | 0.02 | 83 | 1007.2 |
| 20260506173421 | 57 | 262 | 0.0 | 1.7 | 0.01 | 0.35 | 0.02 | 83 | 1007.2 |
| 20260506173322 | 57 | 262 | 0.0 | 1.7 | 0.01 | 0.35 | 0.02 | 83 | 1007.2 |
| 20260506173218 | 57 | 262 | 0.0 | 2.6 | 0.01 | 0.35 | 0.02 | 82 | 1007.2 |
| 20260506173111 | 57 | 262 | 0.0 | 2.6 | 0.01 | 0.35 | 0.02 | 83 | 1007.2 |
| 20260506173012 | 57 | 260 | 0.0 | 2.6 | 0.01 | 0.35 | 0.02 | 82 | 1007.2 |
| 20260506172909 | 57 | 260 | 0.0 | 3.5 | 0.01 | 0.35 | 0.02 | 82 | 1007.3 |
| 20260506172808 | 57 | 260 | 0.0 | 3.5 | 0.00 | 0.35 | 0.01 | 82 | 1007.3 |
| 20260506172706 | 57 | 260 | 0.0 | 3.5 | 0.00 | 0.35 | 0.01 | 82 | 1007.3 |
| 20260506172603 | 57 | 260 | 0.9 | 3.5 | 0.00 | 0.35 | 0.01 | 81 | 1007.3 |
| 20260506172402 | 58 | 260 | 0.9 | 3.5 | 0.00 | 0.35 | 0.01 | 81 | 1007.3 |
| 20260506172301 | 58 | 260 | 0.9 | 3.5 | 0.00 | 0.35 | 0.01 | 81 | 1007.3 |
| 20260506172202 | 58 | 259 | 0.9 | 3.5 | 0.00 | 0.35 | 0.01 | 81 | 1007.2 |
| 20260506172100 | 58 | 259 | 1.7 | 4.3 | 0.00 | 0.35 | 0.01 | 81 | 1007.3 |
| 20260506171958 | 58 | 259 | 1.7 | 4.3 | 0.00 | 0.35 | 0.01 | 80 | 1007.2 |
| 20260506171857 | 58 | 278 | 1.7 | 4.3 | 0.00 | 0.35 | 0.01 | 81 | 1007.2 |
| 20260506171751 | 58 | 278 | 1.7 | 7.0 | 0.00 | 0.35 | 0.01 | 81 | 1007.2 |
| 20260506171650 | 58 | 278 | 1.7 | 7.0 | 0.00 | 0.35 | 0.01 | 81 | 1007.2 |
| 20260506171547 | 58 | 287 | 2.6 | 7.0 | 0.00 | 0.35 | 0.01 | 80 | 1007.2 |
| 20260506171446 | 58 | 277 | 1.7 | 7.0 | 0.00 | 0.35 | 0.01 | 80 | 1007.1 |
| 20260506171344 | 58 | 272 | 1.7 | 7.0 | 0.00 | 0.35 | 0.01 | 80 | 1007.1 |
| 20260506171243 | 58 | 261 | 2.6 | 7.0 | 0.00 | 0.35 | 0.01 | 80 | 1007.1 |
| 20260506171143 | 58 | 292 | 2.6 | 7.0 | 0.00 | 0.35 | 0.01 | 80 | 1007.1 |
| 20260506171041 | 58 | 289 | 2.6 | 7.0 | 0.00 | 0.35 | 0.01 | 80 | 1007.0 |
| 20260506170939 | 58 | 291 | 2.6 | 7.0 | 0.00 | 0.35 | 0.01 | 79 | 1007.0 |
| 20260506170838 | 58 | 301 | 1.7 | 7.0 | 0.00 | 0.35 | 0.01 | 79 | 1006.9 |
| 20260506170731 | 58 | 324 | 1.7 | 6.1 | 0.00 | 0.35 | 0.01 | 79 | 1006.9 |
| 20260506170630 | 59 | 293 | 2.6 | 6.1 | 0.00 | 0.35 | 0.01 | 79 | 1006.9 |
| 20260506170529 | 59 | 310 | 2.6 | 6.1 | 0.00 | 0.35 | 0.01 | 79 | 1006.8 |
| 20260506170436 | 59 | 279 | 2.6 | 6.1 | 0.00 | 0.35 | 0.01 | 79 | 1006.9 |
| 20260506170358 | 59 | 292 | 3.5 | 6.1 | 0.00 | 0.35 | 0.01 | 78 | 1006.9 |
| 20260506170326 | 59 | 299 | 1.7 | 6.1 | 0.00 | 0.35 | 0.01 | 78 | 1006.9 |
| 20260506170145 | 59 | 323 | 0.9 | 6.1 | 0.00 | 0.35 | 0.01 | 77 | 1006.9 |
| 20260506170114 | 59 | 318 | 0.9 | 6.1 | 0.00 | 0.35 | 0.01 | 77 | 1006.8 |
| 20260506165922 | 59 | 318 | 0.9 | 6.1 | 0.00 | 0.35 | 0.01 | 77 | 1006.9 |
| 20260506165815 | 59 | 318 | 0.9 | 6.1 | 0.00 | 0.35 | 0.01 | 77 | 1006.8 |
| 20260506165714 | 59 | 316 | 0.9 | 6.1 | 0.00 | 0.35 | 0.01 | 76 | 1006.9 |
| 20260506165641 | 59 | 316 | 1.7 | 6.1 | 0.00 | 0.35 | 0.01 | 75 | 1006.8 |
| 20260506165608 | 59 | 316 | 3.5 | 6.1 | 0.00 | 0.35 | 0.01 | 75 | 1006.8 |
| 20260506165410 | 60 | 315 | 2.6 | 6.1 | 0.00 | 0.35 | 0.01 | 75 | 1006.8 |
| 20260506165308 | 60 | 333 | 2.6 | 5.2 | 0.00 | 0.35 | 0.01 | 75 | 1006.8 |
| 20260506165206 | 60 | 307 | 2.6 | 6.1 | 0.00 | 0.35 | 0.01 | 75 | 1006.9 |
| 20260506165104 | 60 | 326 | 1.7 | 6.1 | 0.00 | 0.35 | 0.01 | 75 | 1006.8 |
| 20260506165005 | 60 | 305 | 1.7 | 6.1 | 0.00 | 0.35 | 0.01 | 74 | 1006.7 |
| 20260506164902 | 60 | 319 | 1.7 | 6.1 | 0.00 | 0.35 | 0.01 | 74 | 1006.7 |
| 20260506164801 | 60 | 327 | 1.7 | 6.1 | 0.00 | 0.35 | 0.01 | 74 | 1006.7 |
| 20260506164700 | 60 | 325 | 1.7 | 6.1 | 0.00 | 0.35 | 0.01 | 73 | 1006.7 |
| 20260506164558 | 60 | 325 | 1.7 | 6.1 | 0.00 | 0.35 | 0.01 | 73 | 1006.8 |
| 20260506164459 | 60 | 316 | 2.6 | 6.1 | 0.00 | 0.35 | 0.01 | 73 | 1006.7 |
| 20260506164356 | 60 | 316 | 2.6 | 6.1 | 0.00 | 0.35 | 0.01 | 72 | 1006.8 |
| 20260506164254 | 60 | 318 | 2.6 | 6.1 | 0.00 | 0.35 | 0.01 | 72 | 1006.8 |
| 20260506164154 | 60 | 293 | 1.7 | 6.1 | 0.00 | 0.35 | 0.01 | 72 | 1006.8 |
| 20260506164053 | 60 | 316 | 2.6 | 6.1 | 0.00 | 0.35 | 0.01 | 72 | 1006.7 |
| 20260506163850 | 61 | 303 | 1.7 | 3.5 | 0.00 | 0.35 | 0.01 | 71 | 1006.7 |
| 20260506163749 | 61 | 304 | 1.7 | 3.5 | 0.00 | 0.35 | 0.01 | 71 | 1006.7 |
| 20260506163643 | 61 | 295 | 1.7 | 3.5 | 0.00 | 0.35 | 0.01 | 71 | 1006.7 |
| 20260506163547 | 61 | 303 | 0.9 | 3.5 | 0.00 | 0.35 | 0.01 | 72 | 1006.7 |
| 20260506163445 | 61 | 303 | 1.7 | 3.5 | 0.00 | 0.35 | 0.01 | 72 | 1006.7 |
| 20260506163345 | 61 | 320 | 1.7 | 3.5 | 0.00 | 0.35 | 0.01 | 71 | 1006.8 |
| 20260506163243 | 61 | 319 | 2.6 | 3.5 | 0.00 | 0.35 | 0.01 | 71 | 1006.8 |
| 20260506163141 | 61 | 317 | 1.7 | 3.5 | 0.00 | 0.35 | 0.01 | 71 | 1006.8 |
| 20260506163041 | 61 | 324 | 0.9 | 3.5 | 0.00 | 0.35 | 0.01 | 71 | 1006.7 |
| 20260506162940 | 61 | 307 | 0.9 | 3.5 | 0.00 | 0.35 | 0.01 | 71 | 1006.7 |
| 20260506162843 | 61 | 295 | 2.6 | 3.5 | 0.00 | 0.35 | 0.01 | 70 | 1006.8 |
| 20260506162735 | 61 | 295 | 2.6 | 3.5 | 0.00 | 0.35 | 0.01 | 70 | 1006.7 |
| 20260506162633 | 61 | 293 | 1.7 | 3.5 | 0.00 | 0.35 | 0.01 | 70 | 1006.8 |
| 20260506162532 | 61 | 320 | 0.9 | 3.5 | 0.00 | 0.35 | 0.01 | 70 | 1006.8 |
| 20260506162431 | 61 | 321 | 0.0 | 3.5 | 0.00 | 0.35 | 0.01 | 70 | 1006.7 |
| 20260506162331 | 61 | 320 | 0.9 | 4.3 | 0.00 | 0.35 | 0.01 | 69 | 1006.7 |
| 20260506162228 | 61 | 319 | 1.7 | 5.2 | 0.00 | 0.35 | 0.01 | 69 | 1006.7 |
| 20260506162131 | 61 | 319 | 1.7 | 5.2 | 0.00 | 0.35 | 0.01 | 69 | 1006.7 |
| 20260506162026 | 61 | 320 | 1.7 | 5.2 | 0.00 | 0.35 | 0.01 | 69 | 1006.7 |
| 20260506161924 | 61 | 316 | 1.7 | 5.2 | 0.00 | 0.35 | 0.01 | 69 | 1006.7 |
| 20260506161823 | 61 | 304 | 1.7 | 5.2 | 0.00 | 0.35 | 0.01 | 69 | 1006.8 |
| 20260506161724 | 61 | 318 | 1.7 | 5.2 | 0.00 | 0.35 | 0.01 | 69 | 1006.7 |
| 20260506161624 | 61 | 316 | 0.9 | 5.2 | 0.00 | 0.35 | 0.01 | 68 | 1006.7 |
| 20260506161519 | 61 | 316 | 1.7 | 5.2 | 0.00 | 0.35 | 0.01 | 69 | 1006.7 |
| 20260506161420 | 61 | 297 | 2.6 | 5.2 | 0.00 | 0.35 | 0.01 | 68 | 1006.7 |
| 20260506161318 | 61 | 289 | 1.7 | 5.2 | 0.00 | 0.35 | 0.01 | 68 | 1006.8 |
| 20260506161224 | 62 | 324 | 1.7 | 3.5 | 0.00 | 0.35 | 0.01 | 68 | 1006.8 |
| 20260506161215 | 61 | 313 | 0.9 | 3.5 | 0.00 | 0.35 | 0.01 | 68 | 1006.8 |
| 20260506161127 | 62 | 299 | 1.7 | 3.5 | 0.00 | 0.35 | 0.01 | 68 | 1006.8 |
| 20260506160909 | 62 | 324 | 0.9 | 3.5 | 0.00 | 0.35 | 0.01 | 68 | 1006.8 |
| 20260506160812 | 62 | 324 | 0.9 | 3.5 | 0.00 | 0.35 | 0.01 | 70 | 1006.8 |
| 20260506160711 | 62 | 323 | 1.7 | 3.5 | 0.00 | 0.35 | 0.01 | 68 | 1006.8 |
| 20260506160608 | 62 | 323 | 1.7 | 3.5 | 0.00 | 0.35 | 0.01 | 68 | 1006.7 |
| 20260506160505 | 62 | 322 | 0.9 | 3.5 | 0.00 | 0.35 | 0.01 | 69 | 1006.8 |
| 20260506160403 | 62 | 326 | 0.0 | 3.5 | 0.00 | 0.35 | 0.01 | 68 | 1006.8 |
| 20260506160305 | 62 | 338 | 0.0 | 1.7 | 0.00 | 0.35 | 0.01 | 68 | 1006.8 |
| 20260506160209 | 62 | 349 | 0.0 | 1.7 | 0.00 | 0.35 | 0.01 | 69 | 1006.8 |
| 20260506160105 | 62 | 349 | 0.0 | 1.7 | 0.00 | 0.35 | 0.01 | 69 | 1006.8 |
| 20260506160000 | 62 | 349 | 0.0 | 1.7 | 0.00 | 0.35 | 0.01 | 69 | 1006.8 |
| 20260506155900 | 62 | 349 | 0.9 | 1.7 | 0.00 | 0.35 | 0.01 | 68 | 1006.8 |
| 20260506155804 | 62 | 349 | 0.9 | 1.7 | 0.00 | 0.35 | 0.01 | 68 | 1006.8 |
| 20260506155701 | 62 | 349 | 0.0 | 1.7 | 0.00 | 0.35 | 0.01 | 69 | 1006.8 |
| 20260506155558 | 62 | 347 | 0.0 | 1.7 | 0.00 | 0.35 | 0.01 | 68 | 1006.8 |
| 20260506155456 | 62 | 347 | 0.0 | 1.7 | 0.00 | 0.35 | 0.01 | 69 | 1006.8 |
| 20260506155356 | 62 | 347 | 0.0 | 1.7 | 0.00 | 0.35 | 0.01 | 68 | 1006.8 |
| 20260506155254 | 62 | 347 | 0.0 | 2.6 | 0.00 | 0.35 | 0.01 | 69 | 1006.9 |
| 20260506155152 | 62 | 347 | 0.0 | 2.6 | 0.00 | 0.35 | 0.01 | 69 | 1006.9 |
| 20260506155049 | 62 | 347 | 0.0 | 2.6 | 0.00 | 0.35 | 0.01 | 69 | 1006.9 |
| 20260506154858 | 62 | 347 | 0.0 | 2.6 | 0.00 | 0.35 | 0.01 | 69 | 1006.9 |
| 20260506154823 | 62 | 347 | 0.0 | 2.6 | 0.00 | 0.35 | 0.01 | 70 | 1006.9 |
| 20260506154647 | 62 | 347 | 0.0 | 2.6 | 0.00 | 0.35 | 0.01 | 70 | 1006.9 |
| 20260506154613 | 62 | 347 | 0.0 | 2.6 | 0.00 | 0.35 | 0.01 | 69 | 1006.9 |
| 20260506154543 | 62 | 347 | 0.9 | 3.5 | 0.00 | 0.35 | 0.01 | 68 | 1006.9 |
| 20260506154343 | 62 | 347 | 0.0 | 3.5 | 0.00 | 0.35 | 0.01 | 68 | 1006.9 |
| 20260506154240 | 62 | 347 | 0.0 | 3.5 | 0.00 | 0.35 | 0.01 | 68 | 1006.9 |
| 20260506154138 | 62 | 347 | 0.0 | 3.5 | 0.00 | 0.35 | 0.01 | 69 | 1006.9 |
| 20260506154106 | 62 | 347 | 0.0 | 3.5 | 0.00 | 0.35 | 0.01 | 68 | 1006.9 |
| 20260506154036 | 62 | 347 | 0.0 | 3.5 | 0.00 | 0.35 | 0.01 | 68 | 1006.9 |
| 20260506153831 | 62 | 347 | 0.0 | 3.5 | 0.00 | 0.35 | 0.01 | 67 | 1006.9 |
| 20260506153730 | 62 | 347 | 0.9 | 3.5 | 0.00 | 0.35 | 0.01 | 68 | 1006.8 |
| 20260506153628 | 62 | 347 | 1.7 | 3.5 | 0.00 | 0.35 | 0.01 | 68 | 1006.9 |
| 20260506153523 | 62 | 314 | 1.7 | 3.5 | 0.00 | 0.35 | 0.01 | 67 | 1006.9 |
| 20260506153426 | 62 | 326 | 1.7 | 3.5 | 0.00 | 0.35 | 0.01 | 68 | 1006.9 |
| 20260506153325 | 62 | 322 | 0.9 | 3.5 | 0.00 | 0.35 | 0.01 | 69 | 1006.9 |
| 20260506153221 | 62 | 343 | 0.9 | 3.5 | 0.00 | 0.35 | 0.01 | 67 | 1006.9 |
| 20260506153132 | 63 | 343 | 1.7 | 3.5 | 0.00 | 0.35 | 0.01 | 68 | 1006.8 |
| 20260506153058 | 63 | 29 | 1.7 | 3.5 | 0.00 | 0.35 | 0.01 | 67 | 1006.9 |
| 20260506152919 | 63 | 31 | 0.9 | 3.5 | 0.00 | 0.35 | 0.01 | 68 | 1006.8 |
| 20260506152819 | 63 | 330 | 0.9 | 3.5 | 0.00 | 0.35 | 0.01 | 68 | 1006.9 |
| 20260506152716 | 63 | 329 | 0.9 | 3.5 | 0.00 | 0.35 | 0.01 | 67 | 1006.8 |
| 20260506152626 | 63 | 329 | 1.7 | 3.5 | 0.00 | 0.35 | 0.01 | 67 | 1006.8 |
| 20260506152552 | 63 | 325 | 1.7 | 3.5 | 0.00 | 0.35 | 0.01 | 68 | 1006.9 |
| 20260506152413 | 63 | 325 | 1.7 | 3.5 | 0.00 | 0.35 | 0.01 | 67 | 1006.9 |
| 20260506152312 | 63 | 325 | 1.7 | 3.5 | 0.00 | 0.35 | 0.01 | 66 | 1006.9 |
| 20260506152211 | 63 | 324 | 1.7 | 3.5 | 0.00 | 0.35 | 0.01 | 66 | 1006.9 |
| 20260506152109 | 63 | 324 | 0.9 | 3.5 | 0.00 | 0.35 | 0.01 | 67 | 1006.8 |
| 20260506152002 | 63 | 322 | 0.9 | 2.6 | 0.00 | 0.35 | 0.01 | 66 | 1006.8 |
| 20260506151901 | 63 | 322 | 0.0 | 2.6 | 0.00 | 0.35 | 0.01 | 66 | 1006.9 |
| 20260506151756 | 63 | 322 | 0.9 | 2.6 | 0.00 | 0.35 | 0.01 | 67 | 1006.9 |
| 20260506151659 | 63 | 322 | 0.9 | 2.6 | 0.00 | 0.35 | 0.01 | 67 | 1006.9 |
| 20260506151558 | 63 | 322 | 0.9 | 2.6 | 0.00 | 0.35 | 0.01 | 66 | 1006.8 |
| 20260506151458 | 63 | 314 | 0.0 | 2.6 | 0.00 | 0.35 | 0.01 | 67 | 1006.9 |
| 20260506151356 | 63 | 314 | 0.0 | 2.6 | 0.00 | 0.35 | 0.01 | 66 | 1006.8 |
| 20260506151254 | 63 | 314 | 0.9 | 2.6 | 0.00 | 0.35 | 0.01 | 66 | 1006.8 |
| 20260506151152 | 63 | 314 | 0.9 | 2.6 | 0.00 | 0.35 | 0.01 | 66 | 1006.8 |
| 20260506151050 | 63 | 314 | 0.9 | 2.6 | 0.00 | 0.35 | 0.01 | 65 | 1006.9 |
| 20260506150948 | 63 | 287 | 1.7 | 2.6 | 0.00 | 0.35 | 0.01 | 64 | 1006.9 |
| 20260506150849 | 63 | 287 | 1.7 | 2.6 | 0.00 | 0.35 | 0.01 | 64 | 1006.9 |
| 20260506150748 | 63 | 297 | 0.9 | 2.6 | 0.00 | 0.35 | 0.01 | 65 | 1006.9 |
| 20260506150646 | 63 | 307 | 0.0 | 1.7 | 0.00 | 0.35 | 0.01 | 65 | 1006.9 |
| 20260506150545 | 63 | 211 | 0.0 | 1.7 | 0.00 | 0.35 | 0.01 | 64 | 1006.8 |
| 20260506150444 | 63 | 211 | 0.0 | 1.7 | 0.00 | 0.35 | 0.01 | 63 | 1007.0 |
| 20260506150336 | 63 | 211 | 0.0 | 1.7 | 0.00 | 0.35 | 0.01 | 63 | 1006.9 |
| 20260506150234 | 63 | 211 | 0.9 | 1.7 | 0.00 | 0.35 | 0.01 | 63 | 1006.9 |
| 20260506150151 | 63 | 211 | 0.9 | 2.6 | 0.00 | 0.35 | 0.01 | 63 | 1006.9 |
| 20260506150119 | 63 | 201 | 0.0 | 2.6 | 0.00 | 0.35 | 0.01 | 63 | 1006.9 |
| 20260506150031 | 63 | 202 | 0.0 | 2.6 | 0.00 | 0.35 | 0.01 | 62 | 1006.9 |
| 20260506145831 | 63 | 202 | 0.0 | 2.6 | 0.00 | 0.35 | 0.01 | 62 | 1007.0 |
| 20260506145730 | 63 | 203 | 0.0 | 2.6 | 0.00 | 0.35 | 0.01 | 64 | 1007.0 |
| 20260506145626 | 63 | 203 | 0.9 | 3.5 | 0.00 | 0.35 | 0.01 | 63 | 1006.9 |
| 20260506145523 | 63 | 203 | 0.9 | 3.5 | 0.00 | 0.35 | 0.01 | 63 | 1007.0 |
| 20260506145429 | 63 | 228 | 0.9 | 3.5 | 0.00 | 0.35 | 0.01 | 64 | 1007.0 |
| 20260506145325 | 63 | 249 | 0.9 | 3.5 | 0.00 | 0.35 | 0.01 | 64 | 1007.0 |
| 20260506145224 | 63 | 267 | 0.9 | 3.5 | 0.00 | 0.35 | 0.01 | 64 | 1007.0 |
| 20260506145124 | 63 | 270 | 0.0 | 3.5 | 0.00 | 0.35 | 0.01 | 64 | 1007.0 |
| 20260506145021 | 63 | 270 | 0.0 | 3.5 | 0.00 | 0.35 | 0.01 | 65 | 1007.0 |
| 20260506144818 | 63 | 269 | 1.7 | 5.2 | 0.00 | 0.35 | 0.01 | 64 | 1006.9 |
| 20260506144716 | 63 | 293 | 0.9 | 5.2 | 0.00 | 0.35 | 0.01 | 65 | 1006.9 |
| 20260506144615 | 63 | 318 | 0.0 | 5.2 | 0.00 | 0.35 | 0.01 | 66 | 1006.9 |
| 20260506144514 | 63 | 318 | 0.9 | 5.2 | 0.00 | 0.35 | 0.01 | 66 | 1006.9 |
| 20260506144413 | 63 | 305 | 0.9 | 5.2 | 0.00 | 0.35 | 0.01 | 65 | 1007.0 |
| 20260506144314 | 63 | 305 | 0.9 | 5.2 | 0.00 | 0.35 | 0.01 | 65 | 1007.0 |
| 20260506144212 | 64 | 318 | 0.9 | 5.2 | 0.00 | 0.35 | 0.01 | 64 | 1007.0 |
| 20260506144110 | 64 | 318 | 1.7 | 5.2 | 0.00 | 0.35 | 0.01 | 63 | 1007.0 |
| 20260506144004 | 64 | 318 | 0.0 | 5.2 | 0.00 | 0.35 | 0.01 | 64 | 1007.0 |
| 20260506143906 | 64 | 307 | 0.0 | 3.5 | 0.00 | 0.35 | 0.01 | 66 | 1007.0 |
| 20260506143811 | 64 | 224 | 0.0 | 3.5 | 0.00 | 0.35 | 0.01 | 65 | 1007.0 |
| 20260506143705 | 64 | 224 | 1.7 | 3.5 | 0.00 | 0.35 | 0.01 | 63 | 1007.0 |
| 20260506143604 | 64 | 224 | 2.6 | 3.5 | 0.00 | 0.35 | 0.01 | 63 | 1007.0 |
| 20260506143503 | 64 | 237 | 2.6 | 3.5 | 0.00 | 0.35 | 0.01 | 62 | 1007.0 |
| 20260506143401 | 64 | 257 | 2.6 | 3.5 | 0.00 | 0.35 | 0.01 | 62 | 1007.0 |
| 20260506143300 | 64 | 206 | 1.7 | 3.5 | 0.00 | 0.35 | 0.01 | 62 | 1007.0 |
| 20260506143159 | 64 | 263 | 1.7 | 3.5 | 0.00 | 0.35 | 0.01 | 63 | 1007.0 |
| 20260506143058 | 64 | 268 | 0.9 | 3.5 | 0.00 | 0.35 | 0.01 | 63 | 1007.0 |
| 20260506142957 | 64 | 249 | 1.7 | 3.5 | 0.00 | 0.35 | 0.01 | 62 | 1007.0 |
| 20260506142855 | 64 | 223 | 0.9 | 3.5 | 0.00 | 0.35 | 0.01 | 62 | 1007.0 |
| 20260506142753 | 64 | 253 | 0.9 | 2.6 | 0.00 | 0.35 | 0.01 | 63 | 1007.0 |
| 20260506142647 | 64 | 222 | 0.9 | 2.6 | 0.00 | 0.35 | 0.01 | 63 | 1007.0 |
| 20260506142540 | 64 | 220 | 0.0 | 1.7 | 0.00 | 0.35 | 0.01 | 62 | 1007.1 |
| 20260506142439 | 65 | 220 | 0.9 | 1.7 | 0.00 | 0.35 | 0.01 | 63 | 1007.0 |
| 20260506142337 | 65 | 220 | 0.9 | 2.6 | 0.00 | 0.35 | 0.01 | 62 | 1007.0 |
| 20260506142236 | 65 | 220 | 0.0 | 3.5 | 0.00 | 0.35 | 0.01 | 62 | 1007.0 |
| 20260506142135 | 65 | 220 | 0.0 | 4.3 | 0.00 | 0.35 | 0.01 | 63 | 1006.9 |
| 20260506142035 | 64 | 250 | 0.0 | 4.3 | 0.00 | 0.35 | 0.01 | 62 | 1007.0 |
| 20260506141934 | 64 | 249 | 0.0 | 4.3 | 0.00 | 0.35 | 0.01 | 64 | 1007.0 |
| 20260506141832 | 64 | 249 | 0.0 | 4.3 | 0.00 | 0.35 | 0.01 | 65 | 1006.9 |
| 20260506141731 | 64 | 244 | 0.0 | 4.3 | 0.00 | 0.35 | 0.01 | 63 | 1006.9 |
| 20260506141629 | 64 | 244 | 0.0 | 4.3 | 0.00 | 0.35 | 0.01 | 62 | 1007.0 |
| 20260506141525 | 64 | 252 | 0.9 | 4.3 | 0.00 | 0.35 | 0.01 | 63 | 1007.0 |
| 20260506141425 | 65 | 252 | 1.7 | 4.3 | 0.00 | 0.35 | 0.01 | 61 | 1007.0 |
| 20260506141324 | 65 | 245 | 2.6 | 4.3 | 0.00 | 0.35 | 0.01 | 62 | 1007.0 |
| 20260506141222 | 65 | 241 | 1.7 | 4.3 | 0.00 | 0.35 | 0.01 | 62 | 1007.0 |
| 20260506141118 | 65 | 220 | 1.7 | 4.3 | 0.00 | 0.35 | 0.01 | 62 | 1007.0 |
| 20260506141020 | 64 | 223 | 2.6 | 4.3 | 0.00 | 0.35 | 0.01 | 61 | 1007.0 |
| 20260506140920 | 64 | 243 | 2.6 | 4.3 | 0.00 | 0.35 | 0.01 | 61 | 1007.1 |
| 20260506140818 | 64 | 201 | 2.6 | 4.3 | 0.00 | 0.35 | 0.01 | 61 | 1007.1 |
| 20260506140718 | 64 | 216 | 2.6 | 5.2 | 0.00 | 0.35 | 0.01 | 62 | 1007.1 |
| 20260506140616 | 64 | 191 | 2.6 | 5.2 | 0.00 | 0.35 | 0.01 | 62 | 1007.1 |
| 20260506140515 | 64 | 161 | 1.7 | 5.2 | 0.00 | 0.35 | 0.01 | 62 | 1007.1 |
| 20260506140313 | 64 | 206 | 0.9 | 5.2 | 0.00 | 0.35 | 0.01 | 62 | 1007.2 |
| 20260506140214 | 64 | 136 | 1.7 | 5.2 | 0.00 | 0.35 | 0.01 | 62 | 1007.2 |
| 20260506140136 | 63 | 216 | 0.0 | 5.2 | 0.00 | 0.35 | 0.01 | 63 | 1007.1 |
| 20260506140013 | 63 | 216 | 1.7 | 5.2 | 0.00 | 0.35 | 0.01 | 62 | 1007.2 |
| 20260506135802 | 63 | 216 | 0.9 | 5.2 | 0.00 | 0.35 | 0.01 | 62 | 1007.2 |
| 20260506135659 | 63 | 202 | 0.9 | 5.2 | 0.00 | 0.35 | 0.01 | 63 | 1007.2 |
| 20260506135559 | 63 | 141 | 1.7 | 5.2 | 0.00 | 0.35 | 0.01 | 63 | 1007.3 |
| 20260506135456 | 63 | 140 | 2.6 | 5.2 | 0.00 | 0.35 | 0.01 | 61 | 1007.3 |
| 20260506135354 | 63 | 127 | 2.6 | 5.2 | 0.00 | 0.35 | 0.01 | 62 | 1007.3 |
| 20260506135259 | 63 | 160 | 2.6 | 5.2 | 0.00 | 0.35 | 0.01 | 62 | 1007.3 |
| 20260506135154 | 63 | 170 | 2.6 | 5.2 | 0.00 | 0.35 | 0.01 | 62 | 1007.4 |
| 20260506135053 | 63 | 164 | 1.7 | 4.3 | 0.00 | 0.35 | 0.01 | 61 | 1007.3 |
| 20260506134950 | 63 | 167 | 0.0 | 4.3 | 0.00 | 0.35 | 0.01 | 62 | 1007.3 |
| 20260506134849 | 63 | 157 | 0.9 | 4.3 | 0.00 | 0.35 | 0.01 | 62 | 1007.3 |
| 20260506134749 | 63 | 157 | 1.7 | 4.3 | 0.00 | 0.35 | 0.01 | 62 | 1007.2 |
| 20260506134647 | 63 | 157 | 1.7 | 4.3 | 0.00 | 0.35 | 0.01 | 61 | 1007.3 |
| 20260506134545 | 63 | 172 | 1.7 | 4.3 | 0.00 | 0.35 | 0.01 | 63 | 1007.3 |
| 20260506134444 | 63 | 206 | 2.6 | 4.3 | 0.00 | 0.35 | 0.01 | 62 | 1007.3 |
| 20260506134345 | 63 | 246 | 2.6 | 4.3 | 0.00 | 0.35 | 0.01 | 62 | 1007.3 |
| 20260506134244 | 63 | 203 | 1.7 | 4.3 | 0.00 | 0.35 | 0.01 | 63 | 1007.3 |
| 20260506134143 | 63 | 235 | 0.0 | 4.3 | 0.00 | 0.35 | 0.01 | 64 | 1007.3 |
| 20260506134041 | 63 | 216 | 0.0 | 4.3 | 0.00 | 0.35 | 0.01 | 64 | 1007.3 |
| 20260506133938 | 63 | 216 | 0.0 | 4.3 | 0.00 | 0.35 | 0.01 | 63 | 1007.3 |
| 20260506133836 | 63 | 216 | 0.0 | 4.3 | 0.00 | 0.35 | 0.01 | 63 | 1007.3 |
| 20260506133734 | 63 | 216 | 0.0 | 4.3 | 0.00 | 0.35 | 0.01 | 64 | 1007.3 |
| 20260506133635 | 63 | 216 | 0.9 | 4.3 | 0.00 | 0.35 | 0.01 | 63 | 1007.4 |
| 20260506133534 | 63 | 237 | 1.7 | 4.3 | 0.00 | 0.35 | 0.01 | 62 | 1007.4 |
| 20260506133432 | 63 | 262 | 1.7 | 4.3 | 0.00 | 0.35 | 0.01 | 62 | 1007.4 |
| 20260506133331 | 63 | 216 | 2.6 | 7.0 | 0.00 | 0.35 | 0.01 | 62 | 1007.4 |
| 20260506133229 | 63 | 216 | 1.7 | 7.0 | 0.00 | 0.35 | 0.01 | 62 | 1007.4 |
| 20260506133129 | 63 | 189 | 0.9 | 7.0 | 0.00 | 0.35 | 0.01 | 63 | 1007.4 |
| 20260506133026 | 63 | 192 | 1.7 | 7.0 | 0.00 | 0.35 | 0.01 | 62 | 1007.4 |
| 20260506132925 | 63 | 191 | 2.6 | 7.0 | 0.00 | 0.35 | 0.01 | 62 | 1007.5 |
| 20260506132823 | 63 | 152 | 2.6 | 7.0 | 0.00 | 0.35 | 0.01 | 62 | 1007.5 |
| 20260506132722 | 63 | 156 | 1.7 | 7.0 | 0.00 | 0.35 | 0.01 | 62 | 1007.5 |
| 20260506132621 | 63 | 175 | 2.6 | 7.0 | 0.00 | 0.35 | 0.01 | 62 | 1007.5 |
| 20260506132519 | 63 | 216 | 2.6 | 7.0 | 0.00 | 0.35 | 0.01 | 61 | 1007.5 |
| 20260506132418 | 63 | 170 | 1.7 | 7.0 | 0.00 | 0.35 | 0.01 | 62 | 1007.6 |
| 20260506132316 | 63 | 216 | 2.6 | 7.0 | 0.00 | 0.35 | 0.01 | 62 | 1007.6 |
| 20260506132215 | 63 | 216 | 4.3 | 7.0 | 0.00 | 0.35 | 0.01 | 62 | 1007.6 |
| 20260506132114 | 63 | 154 | 5.2 | 7.0 | 0.00 | 0.35 | 0.01 | 62 | 1007.5 |
| 20260506132014 | 63 | 137 | 4.3 | 7.0 | 0.00 | 0.35 | 0.01 | 62 | 1007.6 |
| 20260506131909 | 63 | 149 | 3.5 | 6.1 | 0.00 | 0.35 | 0.01 | 63 | 1007.6 |
| 20260506131807 | 63 | 127 | 1.7 | 7.0 | 0.00 | 0.35 | 0.01 | 63 | 1007.6 |
| 20260506131705 | 63 | 126 | 1.7 | 7.0 | 0.00 | 0.35 | 0.01 | 63 | 1007.6 |
| 20260506131604 | 63 | 164 | 3.5 | 7.0 | 0.00 | 0.35 | 0.01 | 63 | 1007.6 |
| 20260506131510 | 63 | 179 | 2.6 | 7.0 | 0.00 | 0.35 | 0.01 | 64 | 1007.6 |
| 20260506131406 | 63 | 224 | 1.7 | 7.0 | 0.00 | 0.35 | 0.01 | 63 | 1007.6 |
| 20260506131304 | 63 | 252 | 1.7 | 7.0 | 0.00 | 0.35 | 0.01 | 62 | 1007.6 |
| 20260506131204 | 63 | 206 | 3.5 | 7.0 | 0.00 | 0.35 | 0.01 | 63 | 1007.6 |
| 20260506131102 | 63 | 216 | 4.3 | 7.0 | 0.00 | 0.35 | 0.01 | 63 | 1007.7 |
| 20260506130959 | 63 | 248 | 3.5 | 7.0 | 0.00 | 0.35 | 0.01 | 63 | 1007.6 |
| 20260506130901 | 63 | 262 | 1.7 | 7.0 | 0.00 | 0.35 | 0.01 | 62 | 1007.6 |
| 20260506130757 | 63 | 276 | 1.7 | 4.3 | 0.00 | 0.35 | 0.01 | 61 | 1007.6 |
| 20260506130655 | 63 | 216 | 1.7 | 7.0 | 0.00 | 0.35 | 0.01 | 62 | 1007.7 |
| 20260506130554 | 63 | 175 | 1.7 | 7.0 | 0.00 | 0.35 | 0.01 | 62 | 1007.7 |
| 20260506130453 | 63 | 146 | 1.7 | 8.7 | 0.00 | 0.35 | 0.01 | 62 | 1007.7 |
| 20260506130355 | 63 | 206 | 1.7 | 8.7 | 0.00 | 0.35 | 0.01 | 62 | 1007.8 |
| 20260506130252 | 63 | 211 | 2.6 | 8.7 | 0.00 | 0.35 | 0.01 | 61 | 1007.7 |
| 20260506130148 | 63 | 206 | 3.5 | 8.7 | 0.00 | 0.35 | 0.01 | 60 | 1007.7 |
| 20260506130049 | 63 | 206 | 3.5 | 8.7 | 0.00 | 0.35 | 0.01 | 61 | 1007.8 |
| 20260506125948 | 63 | 216 | 4.3 | 8.7 | 0.00 | 0.35 | 0.01 | 61 | 1007.8 |
| 20260506125745 | 63 | 179 | 5.2 | 8.7 | 0.00 | 0.35 | 0.01 | 62 | 1007.7 |
| 20260506125640 | 63 | 220 | 4.3 | 8.7 | 0.00 | 0.35 | 0.01 | 61 | 1007.8 |
| 20260506125542 | 63 | 216 | 2.6 | 8.7 | 0.00 | 0.35 | 0.01 | 61 | 1007.8 |
| 20260506125440 | 63 | 203 | 3.5 | 7.8 | 0.00 | 0.35 | 0.01 | 61 | 1007.8 |
| 20260506125340 | 63 | 233 | 4.3 | 7.8 | 0.00 | 0.35 | 0.01 | 61 | 1007.7 |
| 20260506125240 | 63 | 211 | 4.3 | 7.8 | 0.00 | 0.35 | 0.01 | 61 | 1007.8 |
| 20260506125137 | 63 | 199 | 4.3 | 7.8 | 0.00 | 0.35 | 0.01 | 61 | 1007.8 |
| 20260506125033 | 63 | 211 | 4.3 | 7.8 | 0.00 | 0.35 | 0.01 | 61 | 1007.8 |
| 20260506124933 | 63 | 241 | 2.6 | 7.8 | 0.00 | 0.35 | 0.01 | 61 | 1007.8 |
| 20260506124833 | 63 | 176 | 2.6 | 7.8 | 0.00 | 0.35 | 0.01 | 62 | 1007.7 |
| 20260506124731 | 63 | 216 | 3.5 | 4.3 | 0.00 | 0.35 | 0.01 | 62 | 1007.8 |
| 20260506124630 | 63 | 222 | 1.7 | 4.3 | 0.00 | 0.35 | 0.01 | 61 | 1007.7 |
| 20260506124522 | 63 | 197 | 1.7 | 4.3 | 0.00 | 0.35 | 0.01 | 63 | 1007.7 |
| 20260506124421 | 63 | 201 | 1.7 | 4.3 | 0.00 | 0.35 | 0.01 | 62 | 1007.7 |
| 20260506124320 | 63 | 206 | 0.9 | 4.3 | 0.00 | 0.35 | 0.01 | 62 | 1007.7 |
| 20260506124219 | 63 | 197 | 1.7 | 4.3 | 0.00 | 0.35 | 0.01 | 63 | 1007.7 |
| 20260506124117 | 63 | 193 | 1.7 | 6.1 | 0.00 | 0.35 | 0.01 | 63 | 1007.7 |
| 20260506124016 | 63 | 216 | 2.6 | 6.1 | 0.00 | 0.35 | 0.01 | 63 | 1007.7 |
| 20260506123915 | 63 | 253 | 1.7 | 6.1 | 0.00 | 0.35 | 0.01 | 63 | 1007.7 |
| 20260506123814 | 63 | 220 | 1.7 | 6.1 | 0.00 | 0.35 | 0.01 | 63 | 1007.6 |
| 20260506123712 | 63 | 293 | 2.6 | 6.1 | 0.00 | 0.35 | 0.01 | 63 | 1007.6 |
| 20260506123613 | 63 | 211 | 2.6 | 7.0 | 0.00 | 0.35 | 0.01 | 63 | 1007.7 |
| 20260506123508 | 63 | 201 | 3.5 | 8.7 | 0.00 | 0.35 | 0.01 | 63 | 1007.6 |
| 20260506123409 | 63 | 127 | 2.6 | 8.7 | 0.00 | 0.35 | 0.01 | 62 | 1007.6 |
| 20260506123304 | 63 | 157 | 1.7 | 8.7 | 0.00 | 0.35 | 0.01 | 61 | 1007.7 |
| 20260506123207 | 63 | 145 | 1.7 | 8.7 | 0.00 | 0.35 | 0.01 | 63 | 1007.6 |
| 20260506123101 | 63 | 153 | 1.7 | 8.7 | 0.00 | 0.35 | 0.01 | 63 | 1007.7 |
| 20260506123006 | 63 | 148 | 1.7 | 8.7 | 0.00 | 0.35 | 0.01 | 62 | 1007.6 |
| 20260506122905 | 63 | 174 | 3.5 | 8.7 | 0.00 | 0.35 | 0.01 | 63 | 1007.7 |
| 20260506122801 | 63 | 145 | 5.2 | 8.7 | 0.00 | 0.35 | 0.01 | 63 | 1007.6 |
| 20260506122700 | 64 | 135 | 4.3 | 8.7 | 0.00 | 0.35 | 0.01 | 62 | 1007.7 |
| 20260506122558 | 64 | 141 | 2.6 | 7.0 | 0.00 | 0.35 | 0.01 | 62 | 1007.7 |
| 20260506122457 | 64 | 149 | 1.7 | 7.8 | 0.00 | 0.35 | 0.01 | 61 | 1007.7 |
| 20260506122359 | 64 | 156 | 2.6 | 7.8 | 0.00 | 0.35 | 0.01 | 63 | 1007.8 |
| 20260506122252 | 64 | 216 | 2.6 | 7.8 | 0.00 | 0.35 | 0.01 | 63 | 1007.7 |
| 20260506122153 | 64 | 238 | 2.6 | 7.8 | 0.00 | 0.35 | 0.01 | 62 | 1007.8 |
| 20260506122052 | 64 | 252 | 2.6 | 7.8 | 0.00 | 0.35 | 0.01 | 63 | 1007.8 |
| 20260506121949 | 64 | 176 | 3.5 | 7.8 | 0.00 | 0.35 | 0.01 | 63 | 1007.7 |
| 20260506121847 | 64 | 275 | 3.5 | 7.8 | 0.00 | 0.35 | 0.01 | 62 | 1007.8 |
| 20260506121747 | 64 | 216 | 3.5 | 7.8 | 0.00 | 0.35 | 0.01 | 62 | 1007.8 |
| 20260506121646 | 64 | 206 | 4.3 | 7.8 | 0.00 | 0.35 | 0.01 | 63 | 1007.8 |
| 20260506121547 | 64 | 222 | 3.5 | 7.8 | 0.00 | 0.35 | 0.01 | 65 | 1007.8 |
| 20260506121446 | 64 | 232 | 2.6 | 7.8 | 0.00 | 0.35 | 0.01 | 66 | 1007.9 |
| 20260506121344 | 64 | 206 | 1.7 | 7.8 | 0.00 | 0.35 | 0.01 | 66 | 1007.8 |
| 20260506121243 | 64 | 206 | 1.7 | 7.8 | 0.00 | 0.35 | 0.01 | 66 | 1007.8 |
| 20260506121142 | 63 | 206 | 2.6 | 7.8 | 0.00 | 0.35 | 0.01 | 67 | 1007.8 |
| 20260506121040 | 63 | 123 | 3.5 | 7.8 | 0.00 | 0.35 | 0.01 | 67 | 1007.9 |
| 20260506120938 | 63 | 280 | 3.5 | 7.8 | 0.00 | 0.35 | 0.01 | 66 | 1007.9 |
| 20260506120839 | 63 | 203 | 4.3 | 7.8 | 0.00 | 0.35 | 0.01 | 66 | 1007.8 |
| 20260506120736 | 63 | 211 | 3.5 | 7.8 | 0.00 | 0.35 | 0.01 | 65 | 1007.9 |
| 20260506120635 | 63 | 220 | 3.5 | 7.0 | 0.00 | 0.35 | 0.01 | 68 | 1007.8 |
| 20260506120533 | 63 | 267 | 3.5 | 7.0 | 0.00 | 0.35 | 0.01 | 68 | 1007.9 |
| 20260506120431 | 62 | 276 | 1.7 | 7.0 | 0.00 | 0.35 | 0.01 | 68 | 1007.9 |
| 20260506120230 | 62 | 206 | 0.0 | 5.2 | 0.00 | 0.35 | 0.01 | 70 | 1007.9 |
| 20260506120128 | 62 | 206 | 0.0 | 5.2 | 0.00 | 0.35 | 0.01 | 71 | 1007.9 |
| 20260506120034 | 62 | 206 | 0.0 | 5.2 | 0.00 | 0.35 | 0.01 | 70 | 1007.9 |
| 20260506115959 | 62 | 206 | 0.9 | 7.0 | 0.00 | 0.35 | 0.01 | 69 | 1007.9 |
| 20260506115820 | 63 | 206 | 1.7 | 8.7 | 0.00 | 0.35 | 0.01 | 69 | 1008.0 |
| 20260506115720 | 63 | 206 | 2.6 | 8.7 | 0.00 | 0.35 | 0.01 | 70 | 1008.0 |
| 20260506115617 | 63 | 187 | 3.5 | 8.7 | 0.00 | 0.35 | 0.01 | 69 | 1008.0 |
| 20260506115516 | 63 | 164 | 3.5 | 8.7 | 0.00 | 0.35 | 0.01 | 68 | 1008.0 |
| 20260506115415 | 63 | 155 | 3.5 | 8.7 | 0.00 | 0.35 | 0.01 | 68 | 1008.0 |
| 20260506115314 | 63 | 200 | 3.5 | 8.7 | 0.00 | 0.35 | 0.01 | 68 | 1008.0 |
| 20260506115213 | 64 | 220 | 3.5 | 8.7 | 0.00 | 0.35 | 0.01 | 68 | 1008.0 |
| 20260506115113 | 64 | 231 | 4.3 | 8.7 | 0.00 | 0.35 | 0.01 | 68 | 1008.0 |
| 20260506115024 | 64 | 249 | 4.3 | 8.7 | 0.00 | 0.35 | 0.01 | 69 | 1008.0 |
| 20260506114951 | 64 | 188 | 3.5 | 8.7 | 0.00 | 0.35 | 0.01 | 68 | 1008.0 |
| 20260506114807 | 64 | 216 | 2.6 | 7.8 | 0.00 | 0.35 | 0.01 | 67 | 1008.0 |
| 20260506114707 | 64 | 224 | 0.9 | 7.8 | 0.00 | 0.35 | 0.01 | 68 | 1008.0 |
| 20260506114605 | 64 | 134 | 1.7 | 7.8 | 0.00 | 0.35 | 0.01 | 69 | 1008.0 |
| 20260506114503 | 64 | 216 | 3.5 | 8.7 | 0.00 | 0.35 | 0.01 | 69 | 1008.1 |
| 20260506114402 | 63 | 216 | 3.5 | 9.6 | 0.00 | 0.35 | 0.01 | 70 | 1008.1 |
| 20260506114301 | 63 | 222 | 2.6 | 9.6 | 0.00 | 0.35 | 0.01 | 70 | 1008.1 |
| 20260506114200 | 63 | 191 | 2.6 | 9.6 | 0.00 | 0.35 | 0.01 | 71 | 1008.1 |
| 20260506114058 | 63 | 166 | 2.6 | 9.6 | 0.00 | 0.35 | 0.01 | 72 | 1008.0 |
| 20260506113957 | 62 | 178 | 3.5 | 9.6 | 0.00 | 0.35 | 0.01 | 71 | 1008.0 |
| 20260506113856 | 62 | 122 | 5.2 | 9.6 | 0.00 | 0.35 | 0.01 | 71 | 1008.1 |
| 20260506113754 | 62 | 144 | 6.1 | 9.6 | 0.00 | 0.35 | 0.01 | 71 | 1008.1 |
| 20260506113653 | 62 | 167 | 7.8 | 9.6 | 0.00 | 0.35 | 0.01 | 71 | 1008.1 |
| 20260506113552 | 63 | 189 | 6.1 | 9.6 | 0.00 | 0.35 | 0.01 | 71 | 1008.0 |
| 20260506113450 | 62 | 168 | 4.3 | 9.6 | 0.00 | 0.35 | 0.01 | 71 | 1008.0 |
| 20260506113349 | 62 | 119 | 3.5 | 8.7 | 0.00 | 0.35 | 0.01 | 71 | 1008.0 |
| 20260506113248 | 62 | 139 | 3.5 | 7.0 | 0.00 | 0.35 | 0.01 | 70 | 1008.1 |
| 20260506113147 | 62 | 176 | 3.5 | 7.0 | 0.00 | 0.35 | 0.01 | 71 | 1008.1 |
| 20260506113045 | 62 | 175 | 2.6 | 7.0 | 0.00 | 0.35 | 0.01 | 71 | 1008.2 |
| 20260506112944 | 62 | 140 | 1.7 | 7.0 | 0.00 | 0.35 | 0.01 | 71 | 1008.2 |
| 20260506112842 | 62 | 225 | 1.7 | 7.0 | 0.00 | 0.35 | 0.01 | 72 | 1008.2 |
| 20260506112741 | 62 | 206 | 1.7 | 7.0 | 0.00 | 0.35 | 0.01 | 71 | 1008.2 |
| 20260506112640 | 62 | 190 | 2.6 | 7.0 | 0.00 | 0.35 | 0.01 | 72 | 1008.2 |
| 20260506112539 | 62 | 159 | 3.5 | 7.0 | 0.00 | 0.35 | 0.01 | 71 | 1008.2 |
| 20260506112437 | 62 | 216 | 3.5 | 7.0 | 0.00 | 0.35 | 0.01 | 71 | 1008.2 |
| 20260506112329 | 62 | 230 | 2.6 | 6.1 | 0.00 | 0.35 | 0.01 | 72 | 1008.2 |
| 20260506112228 | 62 | 220 | 2.6 | 6.1 | 0.00 | 0.35 | 0.01 | 72 | 1008.1 |
| 20260506112129 | 62 | 257 | 2.6 | 7.8 | 0.00 | 0.35 | 0.01 | 72 | 1008.2 |
| 20260506112024 | 62 | 222 | 2.6 | 7.8 | 0.00 | 0.35 | 0.01 | 72 | 1008.2 |
| 20260506111927 | 62 | 266 | 3.5 | 7.8 | 0.00 | 0.35 | 0.01 | 72 | 1008.2 |
| 20260506111824 | 62 | 251 | 3.5 | 7.8 | 0.00 | 0.35 | 0.01 | 71 | 1008.2 |
| 20260506111727 | 62 | 243 | 3.5 | 7.8 | 0.00 | 0.35 | 0.01 | 71 | 1008.2 |
| 20260506111621 | 62 | 252 | 3.5 | 7.8 | 0.00 | 0.35 | 0.01 | 71 | 1008.2 |
| 20260506111528 | 62 | 233 | 3.5 | 7.8 | 0.00 | 0.35 | 0.01 | 71 | 1008.2 |
| 20260506111454 | 62 | 240 | 3.5 | 7.8 | 0.00 | 0.35 | 0.01 | 71 | 1008.2 |
| 20260506111417 | 62 | 216 | 4.3 | 7.8 | 0.00 | 0.35 | 0.01 | 71 | 1008.2 |
| 20260506111221 | 62 | 222 | 3.5 | 7.8 | 0.00 | 0.35 | 0.01 | 71 | 1008.3 |
| 20260506111112 | 63 | 271 | 2.6 | 7.8 | 0.00 | 0.35 | 0.01 | 71 | 1008.3 |
| 20260506111038 | 63 | 243 | 2.6 | 7.8 | 0.00 | 0.35 | 0.01 | 71 | 1008.2 |
| 20260506111004 | 63 | 178 | 2.6 | 7.8 | 0.00 | 0.35 | 0.01 | 72 | 1008.2 |
| 20260506110808 | 63 | 195 | 1.7 | 7.0 | 0.00 | 0.35 | 0.01 | 71 | 1008.2 |
| 20260506110711 | 62 | 216 | 2.6 | 7.0 | 0.00 | 0.35 | 0.01 | 72 | 1008.2 |
| 20260506110604 | 62 | 211 | 4.3 | 7.0 | 0.00 | 0.35 | 0.01 | 71 | 1008.2 |
| 20260506110504 | 62 | 171 | 4.3 | 7.0 | 0.00 | 0.35 | 0.01 | 70 | 1008.2 |
| 20260506110402 | 62 | 156 | 2.6 | 7.8 | 0.00 | 0.35 | 0.01 | 70 | 1008.2 |
| 20260506110300 | 62 | 161 | 1.7 | 10.4 | 0.00 | 0.35 | 0.01 | 72 | 1008.2 |
| 20260506110200 | 62 | 133 | 1.7 | 10.4 | 0.00 | 0.35 | 0.01 | 72 | 1008.2 |
| 20260506105956 | 62 | 216 | 2.6 | 10.4 | 0.00 | 0.35 | 0.01 | 72 | 1008.2 |
| 20260506105859 | 62 | 182 | 3.5 | 10.4 | 0.00 | 0.35 | 0.01 | 73 | 1008.3 |
| 20260506105757 | 62 | 169 | 3.5 | 10.4 | 0.00 | 0.35 | 0.01 | 71 | 1008.2 |
| 20260506105655 | 62 | 166 | 3.5 | 10.4 | 0.00 | 0.35 | 0.01 | 72 | 1008.2 |
| 20260506105555 | 62 | 155 | 3.5 | 10.4 | 0.00 | 0.35 | 0.01 | 72 | 1008.2 |
| 20260506105454 | 62 | 203 | 2.6 | 10.4 | 0.00 | 0.35 | 0.01 | 72 | 1008.3 |
| 20260506105352 | 62 | 175 | 1.7 | 7.8 | 0.00 | 0.35 | 0.01 | 73 | 1008.3 |
| 20260506105251 | 62 | 152 | 4.3 | 7.8 | 0.00 | 0.35 | 0.01 | 72 | 1008.2 |
| 20260506105150 | 62 | 147 | 4.3 | 7.8 | 0.00 | 0.35 | 0.01 | 72 | 1008.3 |
| 20260506105047 | 62 | 125 | 3.5 | 7.8 | 0.00 | 0.35 | 0.01 | 72 | 1008.3 |
| 20260506104946 | 62 | 131 | 3.5 | 7.8 | 0.00 | 0.35 | 0.01 | 72 | 1008.3 |
| 20260506104846 | 62 | 206 | 3.5 | 7.8 | 0.00 | 0.35 | 0.01 | 72 | 1008.3 |
| 20260506104741 | 62 | 176 | 3.5 | 7.0 | 0.00 | 0.35 | 0.01 | 72 | 1008.3 |
| 20260506104642 | 62 | 211 | 1.7 | 7.0 | 0.00 | 0.35 | 0.01 | 72 | 1008.3 |
| 20260506104539 | 61 | 151 | 2.6 | 7.0 | 0.00 | 0.35 | 0.01 | 73 | 1008.3 |
| 20260506104437 | 61 | 184 | 3.5 | 7.0 | 0.00 | 0.35 | 0.01 | 72 | 1008.3 |
| 20260506104335 | 61 | 149 | 4.3 | 7.0 | 0.00 | 0.35 | 0.01 | 72 | 1008.3 |
| 20260506104233 | 61 | 233 | 3.5 | 7.8 | 0.00 | 0.35 | 0.01 | 72 | 1008.4 |
| 20260506104132 | 61 | 201 | 1.7 | 7.8 | 0.00 | 0.35 | 0.01 | 74 | 1008.4 |
| 20260506104031 | 61 | 261 | 2.6 | 7.8 | 0.00 | 0.35 | 0.01 | 74 | 1008.4 |
| 20260506103930 | 61 | 133 | 3.5 | 7.8 | 0.00 | 0.35 | 0.01 | 74 | 1008.4 |
| 20260506103834 | 61 | 147 | 3.5 | 7.8 | 0.00 | 0.35 | 0.01 | 73 | 1008.4 |
| 20260506103732 | 61 | 154 | 3.5 | 7.8 | 0.00 | 0.35 | 0.01 | 74 | 1008.4 |
| 20260506103631 | 61 | 190 | 2.6 | 7.8 | 0.00 | 0.35 | 0.01 | 74 | 1008.4 |
| 20260506103531 | 61 | 187 | 3.5 | 7.8 | 0.00 | 0.35 | 0.01 | 74 | 1008.4 |
| 20260506103428 | 61 | 143 | 3.5 | 7.8 | 0.00 | 0.35 | 0.01 | 74 | 1008.4 |
| 20260506103328 | 61 | 189 | 3.5 | 7.8 | 0.00 | 0.35 | 0.01 | 74 | 1008.4 |
| 20260506103226 | 61 | 167 | 2.6 | 7.0 | 0.00 | 0.35 | 0.01 | 74 | 1008.4 |
| 20260506103124 | 60 | 228 | 3.5 | 7.0 | 0.00 | 0.35 | 0.01 | 74 | 1008.4 |
| 20260506103022 | 60 | 152 | 2.6 | 7.0 | 0.00 | 0.35 | 0.01 | 74 | 1008.4 |
| 20260506102921 | 60 | 155 | 3.5 | 7.8 | 0.00 | 0.35 | 0.01 | 74 | 1008.4 |
| 20260506102821 | 60 | 216 | 4.3 | 7.8 | 0.00 | 0.35 | 0.01 | 74 | 1008.4 |
| 20260506102720 | 61 | 157 | 2.6 | 7.8 | 0.00 | 0.35 | 0.01 | 74 | 1008.4 |
| 20260506102614 | 61 | 157 | 1.7 | 7.8 | 0.00 | 0.35 | 0.01 | 74 | 1008.5 |
| 20260506102512 | 61 | 195 | 1.7 | 7.8 | 0.00 | 0.35 | 0.01 | 75 | 1008.3 |
| 20260506102411 | 61 | 206 | 2.6 | 7.8 | 0.00 | 0.35 | 0.01 | 75 | 1008.4 |
| 20260506102315 | 60 | 203 | 3.5 | 7.8 | 0.00 | 0.35 | 0.01 | 75 | 1008.4 |
| 20260506102214 | 60 | 182 | 2.6 | 7.8 | 0.00 | 0.35 | 0.01 | 75 | 1008.4 |
| 20260506102111 | 60 | 160 | 3.5 | 7.8 | 0.00 | 0.35 | 0.01 | 76 | 1008.4 |
| 20260506102010 | 60 | 182 | 2.6 | 7.8 | 0.00 | 0.35 | 0.01 | 76 | 1008.4 |
| 20260506101909 | 60 | 198 | 3.5 | 7.8 | 0.00 | 0.35 | 0.01 | 76 | 1008.4 |
| 20260506101811 | 60 | 166 | 4.3 | 7.8 | 0.00 | 0.35 | 0.01 | 77 | 1008.3 |
| 20260506101706 | 60 | 191 | 4.3 | 7.8 | 0.00 | 0.35 | 0.01 | 76 | 1008.4 |
| 20260506101606 | 60 | 131 | 2.6 | 7.8 | 0.00 | 0.35 | 0.01 | 77 | 1008.4 |
| 20260506101506 | 60 | 178 | 3.5 | 5.2 | 0.00 | 0.35 | 0.01 | 77 | 1008.4 |
| 20260506101358 | 60 | 182 | 2.6 | 5.2 | 0.00 | 0.35 | 0.01 | 77 | 1008.4 |
| 20260506101159 | 60 | 144 | 2.6 | 7.0 | 0.00 | 0.35 | 0.01 | 76 | 1008.4 |
| 20260506101058 | 60 | 128 | 1.7 | 7.0 | 0.00 | 0.35 | 0.01 | 76 | 1008.3 |
| 20260506100958 | 60 | 160 | 1.7 | 7.0 | 0.00 | 0.35 | 0.01 | 77 | 1008.4 |
| 20260506100855 | 60 | 171 | 2.6 | 7.0 | 0.00 | 0.35 | 0.01 | 76 | 1008.4 |
| 20260506100754 | 60 | 216 | 2.6 | 7.0 | 0.00 | 0.35 | 0.01 | 75 | 1008.4 |
| 20260506100655 | 60 | 206 | 0.9 | 7.0 | 0.00 | 0.35 | 0.01 | 76 | 1008.4 |
| 20260506100552 | 60 | 149 | 0.0 | 7.0 | 0.00 | 0.35 | 0.01 | 77 | 1008.3 |
| 20260506100450 | 60 | 216 | 1.7 | 7.0 | 0.00 | 0.35 | 0.01 | 77 | 1008.4 |
| 20260506100350 | 60 | 216 | 1.7 | 7.0 | 0.00 | 0.35 | 0.01 | 77 | 1008.4 |
| 20260506100248 | 60 | 216 | 1.7 | 7.0 | 0.00 | 0.35 | 0.01 | 77 | 1008.4 |
| 20260506100155 | 60 | 144 | 1.7 | 6.1 | 0.00 | 0.35 | 0.01 | 76 | 1008.4 |
| 20260506100046 | 60 | 203 | 1.7 | 7.8 | 0.00 | 0.35 | 0.01 | 76 | 1008.4 |
| 20260506095954 | 59 | 203 | 2.6 | 7.8 | 0.00 | 0.35 | 0.01 | 76 | 1008.4 |
| 20260506095921 | 59 | 201 | 3.5 | 7.8 | 0.00 | 0.35 | 0.01 | 76 | 1008.4 |
| 20260506095744 | 59 | 201 | 2.6 | 7.8 | 0.00 | 0.35 | 0.01 | 75 | 1008.3 |
| 20260506095642 | 59 | 203 | 1.7 | 7.8 | 0.00 | 0.35 | 0.01 | 75 | 1008.4 |
| 20260506095541 | 59 | 211 | 3.5 | 7.8 | 0.00 | 0.35 | 0.01 | 75 | 1008.4 |
| 20260506095439 | 59 | 181 | 2.6 | 7.8 | 0.00 | 0.35 | 0.01 | 75 | 1008.4 |
| 20260506095338 | 59 | 174 | 1.7 | 7.8 | 0.00 | 0.35 | 0.01 | 76 | 1008.4 |
| 20260506095237 | 59 | 161 | 4.3 | 7.8 | 0.00 | 0.35 | 0.01 | 76 | 1008.4 |
| 20260506095136 | 59 | 159 | 4.3 | 7.8 | 0.00 | 0.35 | 0.01 | 75 | 1008.4 |
| 20260506095034 | 59 | 166 | 2.6 | 7.8 | 0.00 | 0.35 | 0.01 | 76 | 1008.4 |
| 20260506094933 | 59 | 147 | 1.7 | 7.0 | 0.00 | 0.35 | 0.01 | 75 | 1008.3 |
| 20260506094826 | 59 | 143 | 2.6 | 7.8 | 0.00 | 0.35 | 0.01 | 75 | 1008.3 |
| 20260506094724 | 59 | 172 | 2.6 | 7.8 | 0.00 | 0.35 | 0.01 | 75 | 1008.3 |
| 20260506094622 | 59 | 203 | 1.7 | 7.8 | 0.00 | 0.35 | 0.01 | 75 | 1008.4 |
| 20260506094522 | 59 | 211 | 2.6 | 7.8 | 0.00 | 0.35 | 0.01 | 76 | 1008.3 |
| 20260506094420 | 59 | 202 | 3.5 | 7.8 | 0.00 | 0.35 | 0.01 | 75 | 1008.4 |
| 20260506094319 | 59 | 216 | 3.5 | 7.8 | 0.00 | 0.35 | 0.01 | 75 | 1008.3 |
| 20260506094218 | 59 | 211 | 3.5 | 7.8 | 0.00 | 0.35 | 0.01 | 75 | 1008.4 |
| 20260506094116 | 59 | 233 | 2.6 | 7.8 | 0.00 | 0.35 | 0.01 | 75 | 1008.3 |
| 20260506094016 | 59 | 193 | 3.5 | 7.8 | 0.00 | 0.35 | 0.01 | 75 | 1008.4 |
| 20260506093914 | 59 | 171 | 4.3 | 7.8 | 0.00 | 0.35 | 0.01 | 75 | 1008.4 |
| 20260506093813 | 59 | 178 | 4.3 | 7.8 | 0.00 | 0.35 | 0.01 | 75 | 1008.4 |
| 20260506093712 | 60 | 278 | 4.3 | 8.7 | 0.00 | 0.35 | 0.01 | 74 | 1008.3 |
| 20260506093611 | 60 | 226 | 3.5 | 8.7 | 0.00 | 0.35 | 0.01 | 74 | 1008.4 |
| 20260506093509 | 60 | 211 | 3.5 | 8.7 | 0.00 | 0.35 | 0.01 | 74 | 1008.3 |
| 20260506093408 | 60 | 235 | 3.5 | 8.7 | 0.00 | 0.35 | 0.01 | 74 | 1008.3 |
| 20260506093306 | 60 | 187 | 3.5 | 8.7 | 0.00 | 0.35 | 0.01 | 75 | 1008.3 |
| 20260506093205 | 60 | 194 | 4.3 | 8.7 | 0.00 | 0.35 | 0.01 | 74 | 1008.3 |
| 20260506093104 | 60 | 172 | 4.3 | 8.7 | 0.00 | 0.35 | 0.01 | 74 | 1008.3 |
| 20260506093004 | 60 | 180 | 5.2 | 8.7 | 0.00 | 0.35 | 0.01 | 74 | 1008.3 |
| 20260506092902 | 60 | 203 | 4.3 | 8.7 | 0.00 | 0.35 | 0.01 | 74 | 1008.3 |
| 20260506092800 | 60 | 235 | 2.6 | 7.0 | 0.00 | 0.35 | 0.01 | 74 | 1008.3 |
| 20260506092659 | 60 | 145 | 1.7 | 7.0 | 0.00 | 0.35 | 0.01 | 75 | 1008.3 |
| 20260506092557 | 60 | 254 | 2.6 | 7.0 | 0.00 | 0.35 | 0.01 | 76 | 1008.3 |
| 20260506092456 | 59 | 271 | 3.5 | 7.0 | 0.00 | 0.35 | 0.01 | 76 | 1008.2 |
| 20260506092355 | 59 | 233 | 1.7 | 7.0 | 0.00 | 0.35 | 0.01 | 77 | 1008.3 |
| 20260506092151 | 59 | 248 | 0.9 | 4.3 | 0.00 | 0.35 | 0.01 | 77 | 1008.3 |
| 20260506092049 | 59 | 202 | 2.6 | 4.3 | 0.00 | 0.35 | 0.01 | 77 | 1008.3 |
| 20260506091946 | 59 | 202 | 2.6 | 4.3 | 0.00 | 0.35 | 0.01 | 77 | 1008.3 |
| 20260506091845 | 59 | 250 | 1.7 | 4.3 | 0.00 | 0.35 | 0.01 | 77 | 1008.4 |
| 20260506091642 | 58 | 145 | 0.9 | 4.3 | 0.00 | 0.35 | 0.01 | 78 | 1008.2 |
| 20260506091541 | 58 | 143 | 0.9 | 6.1 | 0.00 | 0.35 | 0.01 | 78 | 1008.3 |
| 20260506091442 | 58 | 149 | 0.9 | 6.1 | 0.00 | 0.35 | 0.01 | 78 | 1008.3 |
| 20260506091341 | 58 | 196 | 0.9 | 6.1 | 0.00 | 0.35 | 0.01 | 78 | 1008.3 |
| 20260506091237 | 58 | 233 | 1.7 | 6.1 | 0.00 | 0.35 | 0.01 | 78 | 1008.3 |
| 20260506091138 | 58 | 233 | 1.7 | 6.1 | 0.00 | 0.35 | 0.01 | 78 | 1008.2 |
| 20260506091035 | 58 | 201 | 1.7 | 6.1 | 0.00 | 0.35 | 0.01 | 78 | 1008.2 |
| 20260506090934 | 58 | 154 | 1.7 | 6.1 | 0.00 | 0.35 | 0.01 | 77 | 1008.3 |
| 20260506090834 | 58 | 182 | 3.5 | 6.1 | 0.00 | 0.35 | 0.01 | 77 | 1008.3 |
| 20260506090733 | 58 | 211 | 3.5 | 6.1 | 0.00 | 0.35 | 0.01 | 77 | 1008.3 |
| 20260506090633 | 58 | 220 | 1.7 | 6.1 | 0.00 | 0.35 | 0.01 | 78 | 1008.3 |
| 20260506090527 | 58 | 176 | 1.7 | 3.5 | 0.00 | 0.35 | 0.01 | 78 | 1008.3 |
| 20260506090426 | 58 | 216 | 1.7 | 3.5 | 0.00 | 0.35 | 0.01 | 78 | 1008.3 |
| 20260506090330 | 58 | 216 | 1.7 | 3.5 | 0.00 | 0.35 | 0.01 | 78 | 1008.3 |
| 20260506090226 | 58 | 201 | 1.7 | 3.5 | 0.00 | 0.35 | 0.01 | 79 | 1008.3 |
| 20260506090135 | 58 | 127 | 2.6 | 3.5 | 0.00 | 0.35 | 0.01 | 79 | 1008.2 |
| 20260506090030 | 58 | 145 | 1.7 | 3.5 | 0.00 | 0.35 | 0.01 | 79 | 1008.3 |
| 20260506085920 | 58 | 152 | 0.9 | 3.5 | 0.00 | 0.35 | 0.01 | 79 | 1008.2 |
| 20260506085823 | 58 | 155 | 0.9 | 3.5 | 0.00 | 0.35 | 0.01 | 78 | 1008.3 |
| 20260506085721 | 58 | 220 | 0.9 | 3.5 | 0.00 | 0.35 | 0.01 | 79 | 1008.3 |
| 20260506085616 | 58 | 220 | 1.7 | 3.5 | 0.00 | 0.35 | 0.01 | 78 | 1008.3 |
| 20260506085515 | 58 | 226 | 1.7 | 3.5 | 0.00 | 0.35 | 0.01 | 78 | 1008.3 |
| 20260506085413 | 58 | 216 | 0.9 | 3.5 | 0.00 | 0.35 | 0.01 | 80 | 1008.3 |
| 20260506085311 | 58 | 206 | 0.9 | 3.5 | 0.00 | 0.35 | 0.01 | 80 | 1008.3 |
| 20260506085212 | 58 | 206 | 0.9 | 3.5 | 0.00 | 0.35 | 0.01 | 79 | 1008.3 |
| 20260506085108 | 57 | 206 | 0.0 | 3.5 | 0.00 | 0.35 | 0.01 | 79 | 1008.3 |
| 20260506085008 | 57 | 206 | 0.0 | 3.5 | 0.00 | 0.35 | 0.01 | 79 | 1008.3 |
| 20260506084908 | 57 | 206 | 0.9 | 3.5 | 0.00 | 0.35 | 0.01 | 80 | 1008.3 |
| 20260506084805 | 57 | 201 | 1.7 | 3.5 | 0.00 | 0.35 | 0.01 | 80 | 1008.3 |
| 20260506084705 | 57 | 201 | 1.7 | 3.5 | 0.00 | 0.35 | 0.01 | 80 | 1008.3 |
| 20260506084603 | 57 | 201 | 0.9 | 3.5 | 0.00 | 0.35 | 0.01 | 80 | 1008.3 |
| 20260506084502 | 57 | 170 | 0.9 | 3.5 | 0.00 | 0.35 | 0.01 | 80 | 1008.3 |
| 20260506084401 | 57 | 141 | 1.7 | 3.5 | 0.00 | 0.35 | 0.01 | 80 | 1008.3 |
| 20260506084300 | 57 | 141 | 0.9 | 3.5 | 0.00 | 0.35 | 0.01 | 81 | 1008.3 |
| 20260506084159 | 57 | 163 | 0.9 | 3.5 | 0.00 | 0.35 | 0.01 | 81 | 1008.4 |
| 20260506084055 | 57 | 148 | 1.7 | 3.5 | 0.00 | 0.35 | 0.01 | 81 | 1008.3 |
| 20260506083955 | 57 | 162 | 1.7 | 3.5 | 0.00 | 0.35 | 0.01 | 81 | 1008.4 |
| 20260506083921 | 57 | 148 | 2.6 | 3.5 | 0.00 | 0.35 | 0.01 | 81 | 1008.3 |
| 20260506083849 | 57 | 216 | 2.6 | 7.0 | 0.00 | 0.35 | 0.01 | 80 | 1008.3 |
| 20260506083650 | 57 | 246 | 2.6 | 7.0 | 0.00 | 0.35 | 0.01 | 81 | 1008.4 |
| 20260506083549 | 57 | 216 | 2.6 | 7.0 | 0.00 | 0.35 | 0.01 | 81 | 1008.3 |
| 20260506083447 | 57 | 161 | 1.7 | 7.0 | 0.00 | 0.35 | 0.01 | 81 | 1008.3 |
| 20260506083347 | 57 | 211 | 2.6 | 7.0 | 0.00 | 0.35 | 0.01 | 82 | 1008.3 |
| 20260506083245 | 57 | 211 | 2.6 | 7.0 | 0.00 | 0.35 | 0.01 | 82 | 1008.2 |
| 20260506083142 | 57 | 216 | 1.7 | 7.0 | 0.00 | 0.35 | 0.01 | 82 | 1008.3 |
| 20260506083043 | 56 | 206 | 3.5 | 7.0 | 0.00 | 0.35 | 0.01 | 82 | 1008.4 |
| 20260506082941 | 56 | 188 | 3.5 | 7.0 | 0.00 | 0.35 | 0.01 | 81 | 1008.4 |
| 20260506082837 | 56 | 180 | 2.6 | 7.0 | 0.00 | 0.35 | 0.01 | 81 | 1008.4 |
| 20260506082638 | 56 | 185 | 1.7 | 5.2 | 0.00 | 0.35 | 0.01 | 82 | 1008.4 |
| 20260506082536 | 56 | 146 | 1.7 | 5.2 | 0.00 | 0.35 | 0.01 | 82 | 1008.3 |
| 20260506082435 | 56 | 184 | 1.7 | 5.2 | 0.00 | 0.35 | 0.01 | 82 | 1008.3 |
| 20260506082331 | 56 | 175 | 0.9 | 7.0 | 0.00 | 0.35 | 0.01 | 82 | 1008.3 |
| 20260506082131 | 56 | 206 | 2.6 | 7.0 | 0.00 | 0.35 | 0.01 | 82 | 1008.3 |